| time (UTC) | temp F | wind direction | speed MPH | gust MPH | rain 1hr in | rain 24hr in | rain mn in | humidity % | barometer mb |
| 20260508102803 | 92 | 204 | 7.0 | 10.0 | 0.00 | 0.00 | 0.00 | 41 | 1008.8 |
| 20260508102702 | 92 | 178 | 6.0 | 10.0 | 0.00 | 0.00 | 0.00 | 41 | 1008.6 |
| 20260508102602 | 92 | 245 | 4.0 | 9.0 | 0.00 | 0.00 | 0.00 | 41 | 1008.7 |
| 20260508102504 | 92 | 35 | 4.0 | 9.0 | 0.00 | 0.00 | 0.00 | 41 | 1008.7 |
| 20260508102306 | 91 | 301 | 3.0 | 9.0 | 0.00 | 0.00 | 0.00 | 41 | 1008.8 |
| 20260508102202 | 91 | 311 | 1.0 | 5.0 | 0.00 | 0.00 | 0.00 | 41 | 1008.9 |
| 20260508102104 | 91 | 5 | 1.0 | 5.0 | 0.00 | 0.00 | 0.00 | 40 | 1008.9 |
| 20260508102008 | 91 | 69 | 1.0 | 7.0 | 0.00 | 0.00 | 0.00 | 40 | 1008.9 |
| 20260508101902 | 91 | 79 | 2.0 | 7.0 | 0.00 | 0.00 | 0.00 | 40 | 1009.0 |
| 20260508101802 | 91 | 58 | 3.0 | 7.0 | 0.00 | 0.00 | 0.00 | 40 | 1008.9 |
| 20260508101703 | 91 | 51 | 3.0 | 7.0 | 0.00 | 0.00 | 0.00 | 41 | 1009.0 |
| 20260508101602 | 91 | 104 | 2.0 | 10.0 | 0.00 | 0.00 | 0.00 | 41 | 1009.0 |
| 20260508101504 | 91 | 95 | 2.0 | 11.0 | 0.00 | 0.00 | 0.00 | 41 | 1009.0 |
| 20260508101402 | 91 | 86 | 3.0 | 11.0 | 0.00 | 0.00 | 0.00 | 40 | 1009.0 |
| 20260508101303 | 91 | 98 | 4.0 | 11.0 | 0.00 | 0.00 | 0.00 | 40 | 1009.0 |
| 20260508101202 | 91 | 97 | 4.0 | 11.0 | 0.00 | 0.00 | 0.00 | 40 | 1009.0 |
| 20260508101104 | 91 | 69 | 3.0 | 11.0 | 0.00 | 0.00 | 0.00 | 41 | 1009.0 |
| 20260508101006 | 91 | 160 | 4.0 | 11.0 | 0.00 | 0.00 | 0.00 | 41 | 1009.0 |
| 20260508100903 | 92 | 82 | 6.0 | 11.0 | 0.00 | 0.00 | 0.00 | 40 | 1009.0 |
| 20260508100703 | 92 | 107 | 3.0 | 10.0 | 0.00 | 0.00 | 0.00 | 40 | 1009.0 |
| 20260508100602 | 92 | 117 | 4.0 | 8.0 | 0.00 | 0.00 | 0.00 | 40 | 1008.9 |
| 20260508100505 | 92 | 109 | 5.0 | 8.0 | 0.00 | 0.00 | 0.00 | 40 | 1009.0 |
| 20260508100402 | 92 | 70 | 5.0 | 8.0 | 0.00 | 0.00 | 0.00 | 40 | 1009.0 |
| 20260508100302 | 92 | 139 | 3.0 | 8.0 | 0.00 | 0.00 | 0.00 | 40 | 1009.0 |
| 20260508100205 | 92 | 98 | 3.0 | 9.0 | 0.00 | 0.00 | 0.00 | 40 | 1009.0 |
| 20260508100107 | 92 | 57 | 4.0 | 9.0 | 0.00 | 0.00 | 0.00 | 40 | 1009.0 |
| 20260508100008 | 92 | 186 | 4.0 | 9.0 | 0.00 | 0.00 | 0.00 | 40 | 1009.0 |
| 20260508095902 | 92 | 80 | 3.0 | 9.0 | 0.00 | 0.00 | 0.00 | 40 | 1009.0 |
| 20260508095803 | 92 | 146 | 3.0 | 9.0 | 0.00 | 0.00 | 0.00 | 41 | 1008.9 |
| 20260508095702 | 92 | 71 | 3.0 | 9.0 | 0.00 | 0.00 | 0.00 | 41 | 1009.1 |
| 20260508095603 | 92 | 112 | 4.0 | 9.0 | 0.00 | 0.00 | 0.00 | 40 | 1009.0 |
| 20260508095402 | 92 | 78 | 6.0 | 9.0 | 0.00 | 0.00 | 0.00 | 40 | 1009.0 |
| 20260508095306 | 92 | 142 | 4.0 | 9.0 | 0.00 | 0.00 | 0.00 | 40 | 1009.0 |
| 20260508095203 | 92 | 101 | 5.0 | 9.0 | 0.00 | 0.00 | 0.00 | 40 | 1009.0 |
| 20260508095102 | 92 | 69 | 6.0 | 9.0 | 0.00 | 0.00 | 0.00 | 40 | 1009.0 |
| 20260508094904 | 92 | 64 | 4.0 | 9.0 | 0.00 | 0.00 | 0.00 | 40 | 1009.1 |
| 20260508094804 | 92 | 129 | 4.0 | 9.0 | 0.00 | 0.00 | 0.00 | 41 | 1009.1 |
| 20260508094703 | 91 | 109 | 4.0 | 9.0 | 0.00 | 0.00 | 0.00 | 41 | 1009.2 |
| 20260508094505 | 91 | 151 | 3.0 | 9.0 | 0.00 | 0.00 | 0.00 | 40 | 1009.2 |
| 20260508094402 | 91 | 173 | 4.0 | 9.0 | 0.00 | 0.00 | 0.00 | 40 | 1009.2 |
| 20260508094302 | 91 | 137 | 5.0 | 9.0 | 0.00 | 0.00 | 0.00 | 40 | 1009.2 |
| 20260508094007 | 91 | 101 | 2.0 | 6.0 | 0.00 | 0.00 | 0.00 | 40 | 1009.2 |
| 20260508093903 | 91 | 60 | 1.0 | 7.0 | 0.00 | 0.00 | 0.00 | 40 | 1009.3 |
| 20260508093703 | 91 | 267 | 2.0 | 9.0 | 0.00 | 0.00 | 0.00 | 41 | 1009.4 |
| 20260508093603 | 91 | 261 | 3.0 | 9.0 | 0.00 | 0.00 | 0.00 | 41 | 1009.4 |
| 20260508093504 | 91 | 205 | 4.0 | 9.0 | 0.00 | 0.00 | 0.00 | 40 | 1009.4 |
| 20260508093403 | 91 | 178 | 4.0 | 9.0 | 0.00 | 0.00 | 0.00 | 40 | 1009.5 |
| 20260508093304 | 91 | 190 | 4.0 | 10.0 | 0.00 | 0.00 | 0.00 | 40 | 1009.5 |
| 20260508093202 | 91 | 204 | 6.0 | 10.0 | 0.00 | 0.00 | 0.00 | 40 | 1009.5 |
| 20260508092903 | 91 | 138 | 4.0 | 10.0 | 0.00 | 0.00 | 0.00 | 41 | 1009.4 |
| 20260508092802 | 91 | 149 | 3.0 | 10.0 | 0.00 | 0.00 | 0.00 | 41 | 1009.5 |
| 20260508092603 | 91 | 143 | 5.0 | 10.0 | 0.00 | 0.00 | 0.00 | 41 | 1009.5 |
| 20260508092505 | 91 | 84 | 5.0 | 10.0 | 0.00 | 0.00 | 0.00 | 40 | 1009.5 |
| 20260508092402 | 91 | 113 | 4.0 | 8.0 | 0.00 | 0.00 | 0.00 | 41 | 1009.5 |
| 20260508092312 | 91 | 132 | 4.0 | 8.0 | 0.00 | 0.00 | 0.00 | 40 | 1009.5 |
| 20260508092203 | 91 | 106 | 3.0 | 8.0 | 0.00 | 0.00 | 0.00 | 41 | 1009.6 |
| 20260508092003 | 91 | 42 | 2.0 | 8.0 | 0.00 | 0.00 | 0.00 | 41 | 1009.5 |
| 20260508091902 | 91 | 55 | 3.0 | 8.0 | 0.00 | 0.00 | 0.00 | 41 | 1009.6 |
| 20260508091802 | 91 | 82 | 4.0 | 8.0 | 0.00 | 0.00 | 0.00 | 40 | 1009.5 |
| 20260508091603 | 91 | 125 | 5.0 | 9.0 | 0.00 | 0.00 | 0.00 | 40 | 1009.6 |
| 20260508091504 | 91 | 153 | 5.0 | 9.0 | 0.00 | 0.00 | 0.00 | 40 | 1009.6 |
| 20260508091403 | 91 | 169 | 3.0 | 9.0 | 0.00 | 0.00 | 0.00 | 40 | 1009.7 |
| 20260508091302 | 91 | 122 | 1.0 | 9.0 | 0.00 | 0.00 | 0.00 | 40 | 1009.6 |
| 20260508091202 | 91 | 138 | 3.0 | 9.0 | 0.00 | 0.00 | 0.00 | 40 | 1009.6 |
| 20260508091103 | 91 | 82 | 4.0 | 9.0 | 0.00 | 0.00 | 0.00 | 40 | 1009.6 |
| 20260508091006 | 91 | 133 | 5.0 | 9.0 | 0.00 | 0.00 | 0.00 | 40 | 1009.6 |
| 20260508090705 | 91 | 172 | 5.0 | 8.0 | 0.00 | 0.00 | 0.00 | 41 | 1009.6 |
| 20260508090604 | 91 | 159 | 4.0 | 8.0 | 0.00 | 0.00 | 0.00 | 41 | 1009.7 |
| 20260508090506 | 91 | 135 | 3.0 | 7.0 | 0.00 | 0.00 | 0.00 | 40 | 1009.7 |
| 20260508090405 | 91 | 79 | 4.0 | 7.0 | 0.00 | 0.00 | 0.00 | 40 | 1009.7 |
| 20260508090303 | 91 | 104 | 3.0 | 7.0 | 0.00 | 0.00 | 0.00 | 40 | 1009.6 |
| 20260508090205 | 91 | 123 | 2.0 | 7.0 | 0.00 | 0.00 | 0.00 | 40 | 1009.6 |
| 20260508090104 | 91 | 124 | 1.0 | 8.0 | 0.00 | 0.00 | 0.00 | 41 | 1009.7 |
| 20260508090006 | 91 | 165 | 1.0 | 8.0 | 0.00 | 0.00 | 0.00 | 41 | 1009.7 |
| 20260508085803 | 91 | 250 | 2.0 | 8.0 | 0.00 | 0.00 | 0.00 | 42 | 1009.7 |
| 20260508085603 | 91 | 223 | 3.0 | 8.0 | 0.00 | 0.00 | 0.00 | 42 | 1009.8 |
| 20260508085504 | 91 | 234 | 4.0 | 8.0 | 0.00 | 0.00 | 0.00 | 40 | 1009.8 |
| 20260508085404 | 91 | 184 | 6.0 | 8.0 | 0.00 | 0.00 | 0.00 | 41 | 1009.8 |
| 20260508085306 | 91 | 169 | 6.0 | 9.0 | 0.00 | 0.00 | 0.00 | 41 | 1009.8 |
| 20260508085202 | 91 | 189 | 5.0 | 9.0 | 0.00 | 0.00 | 0.00 | 41 | 1009.8 |
| 20260508085102 | 90 | 174 | 4.0 | 12.0 | 0.00 | 0.00 | 0.00 | 41 | 1009.8 |
| 20260508085006 | 90 | 167 | 3.0 | 12.0 | 0.00 | 0.00 | 0.00 | 41 | 1009.8 |
| 20260508084802 | 90 | 132 | 3.0 | 12.0 | 0.00 | 0.00 | 0.00 | 41 | 1009.8 |
| 20260508084704 | 90 | 144 | 2.0 | 12.0 | 0.00 | 0.00 | 0.00 | 41 | 1009.9 |
| 20260508084603 | 90 | 184 | 4.0 | 12.0 | 0.00 | 0.00 | 0.00 | 41 | 1009.9 |
| 20260508084505 | 90 | 176 | 7.0 | 12.0 | 0.00 | 0.00 | 0.00 | 41 | 1009.9 |
| 20260508084402 | 90 | 169 | 8.0 | 12.0 | 0.00 | 0.00 | 0.00 | 41 | 1010.1 |
| 20260508084304 | 90 | 138 | 9.0 | 12.0 | 0.00 | 0.00 | 0.00 | 41 | 1009.8 |
| 20260508084105 | 90 | 103 | 8.0 | 12.0 | 0.00 | 0.00 | 0.00 | 41 | 1009.8 |
| 20260508084005 | 91 | 107 | 7.0 | 12.0 | 0.00 | 0.00 | 0.00 | 41 | 1009.9 |
| 20260508083903 | 91 | 96 | 7.0 | 12.0 | 0.00 | 0.00 | 0.00 | 41 | 1009.9 |
| 20260508083804 | 91 | 178 | 6.0 | 12.0 | 0.00 | 0.00 | 0.00 | 41 | 1009.9 |
| 20260508083704 | 91 | 115 | 4.0 | 9.0 | 0.00 | 0.00 | 0.00 | 41 | 1009.9 |
| 20260508083505 | 90 | 188 | 3.0 | 7.0 | 0.00 | 0.00 | 0.00 | 41 | 1009.9 |
| 20260508083403 | 90 | 176 | 2.0 | 10.0 | 0.00 | 0.00 | 0.00 | 42 | 1009.9 |
| 20260508083303 | 90 | 169 | 3.0 | 10.0 | 0.00 | 0.00 | 0.00 | 41 | 1009.9 |
| 20260508083204 | 90 | 98 | 4.0 | 10.0 | 0.00 | 0.00 | 0.00 | 40 | 1009.9 |
| 20260508083102 | 90 | 108 | 4.0 | 10.0 | 0.00 | 0.00 | 0.00 | 41 | 1010.0 |
| 20260508083006 | 90 | 98 | 4.0 | 10.0 | 0.00 | 0.00 | 0.00 | 41 | 1010.0 |
| 20260508082904 | 90 | 66 | 4.0 | 10.0 | 0.00 | 0.00 | 0.00 | 42 | 1010.0 |
| 20260508082704 | 90 | 103 | 5.0 | 11.0 | 0.00 | 0.00 | 0.00 | 41 | 1010.0 |
| 20260508082602 | 90 | 104 | 3.0 | 11.0 | 0.00 | 0.00 | 0.00 | 42 | 1010.0 |
| 20260508082506 | 90 | 181 | 4.0 | 11.0 | 0.00 | 0.00 | 0.00 | 42 | 1010.1 |
| 20260508082403 | 90 | 180 | 6.0 | 11.0 | 0.00 | 0.00 | 0.00 | 42 | 1010.0 |
| 20260508082305 | 90 | 125 | 6.0 | 11.0 | 0.00 | 0.00 | 0.00 | 42 | 1010.0 |
| 20260508082203 | 90 | 117 | 7.0 | 11.0 | 0.00 | 0.00 | 0.00 | 42 | 1010.0 |
| 20260508082102 | 90 | 82 | 7.0 | 11.0 | 0.00 | 0.00 | 0.00 | 41 | 1010.0 |
| 20260508081904 | 90 | 84 | 9.0 | 11.0 | 0.00 | 0.00 | 0.00 | 41 | 1010.0 |
| 20260508081805 | 90 | 132 | 7.0 | 11.0 | 0.00 | 0.00 | 0.00 | 42 | 1010.1 |
| 20260508081704 | 89 | 126 | 4.0 | 11.0 | 0.00 | 0.00 | 0.00 | 43 | 1010.0 |
| 20260508081505 | 89 | 95 | 3.0 | 12.0 | 0.00 | 0.00 | 0.00 | 42 | 1010.1 |
| 20260508081400 | 89 | 123 | 4.0 | 12.0 | 0.00 | 0.00 | 0.00 | 42 | 1010.0 |
| 20260508081303 | 89 | 288 | 4.0 | 12.0 | 0.00 | 0.00 | 0.00 | 43 | 1010.1 |
| 20260508081200 | 89 | 194 | 5.0 | 12.0 | 0.00 | 0.00 | 0.00 | 43 | 1010.1 |
| 20260508081103 | 89 | 229 | 6.0 | 12.0 | 0.00 | 0.00 | 0.00 | 43 | 1010.1 |
| 20260508081006 | 89 | 191 | 7.0 | 12.0 | 0.00 | 0.00 | 0.00 | 43 | 1010.1 |
| 20260508080903 | 89 | 188 | 7.0 | 14.0 | 0.00 | 0.00 | 0.00 | 43 | 1010.1 |
| 20260508080703 | 89 | 140 | 6.0 | 14.0 | 0.00 | 0.00 | 0.00 | 42 | 1010.1 |
| 20260508080508 | 89 | 167 | 5.0 | 14.0 | 0.00 | 0.00 | 0.00 | 43 | 1010.1 |
| 20260508080404 | 89 | 167 | 6.0 | 14.0 | 0.00 | 0.00 | 0.00 | 43 | 1010.2 |
| 20260508080303 | 89 | 186 | 7.0 | 14.0 | 0.00 | 0.00 | 0.00 | 42 | 1010.2 |
| 20260508075903 | 89 | 168 | 5.0 | 11.0 | 0.00 | 0.00 | 0.00 | 42 | 1010.2 |
| 20260508075803 | 89 | 128 | 4.0 | 15.0 | 0.00 | 0.00 | 0.00 | 42 | 1010.2 |
| 20260508075702 | 89 | 172 | 5.0 | 15.0 | 0.00 | 0.00 | 0.00 | 42 | 1010.2 |
| 20260508075603 | 89 | 148 | 6.0 | 15.0 | 0.00 | 0.00 | 0.00 | 42 | 1010.3 |
| 20260508075504 | 89 | 185 | 6.0 | 15.0 | 0.00 | 0.00 | 0.00 | 42 | 1010.3 |
| 20260508075403 | 89 | 172 | 6.0 | 15.0 | 0.00 | 0.00 | 0.00 | 42 | 1010.3 |
| 20260508075308 | 89 | 147 | 6.0 | 15.0 | 0.00 | 0.00 | 0.00 | 42 | 1010.3 |
| 20260508075203 | 89 | 142 | 8.0 | 15.0 | 0.00 | 0.00 | 0.00 | 42 | 1010.3 |
| 20260508075103 | 89 | 134 | 10.0 | 15.0 | 0.00 | 0.00 | 0.00 | 43 | 1010.1 |
| 20260508075006 | 89 | 136 | 9.0 | 15.0 | 0.00 | 0.00 | 0.00 | 42 | 1010.2 |
| 20260508074903 | 89 | 109 | 6.0 | 12.0 | 0.00 | 0.00 | 0.00 | 42 | 1010.2 |
| 20260508074800 | 89 | 78 | 4.0 | 12.0 | 0.00 | 0.00 | 0.00 | 42 | 1010.2 |
| 20260508074703 | 89 | 126 | 4.0 | 12.0 | 0.00 | 0.00 | 0.00 | 41 | 1010.3 |
| 20260508074604 | 89 | 53 | 5.0 | 12.0 | 0.00 | 0.00 | 0.00 | 41 | 1010.3 |
| 20260508074505 | 89 | 104 | 7.0 | 12.0 | 0.00 | 0.00 | 0.00 | 41 | 1010.3 |
| 20260508074402 | 89 | 106 | 7.0 | 12.0 | 0.00 | 0.00 | 0.00 | 42 | 1010.4 |
| 20260508074302 | 89 | 203 | 6.0 | 10.0 | 0.00 | 0.00 | 0.00 | 42 | 1010.4 |
| 20260508074204 | 89 | 171 | 6.0 | 10.0 | 0.00 | 0.00 | 0.00 | 42 | 1010.4 |
| 20260508074102 | 89 | 147 | 7.0 | 12.0 | 0.00 | 0.00 | 0.00 | 43 | 1010.4 |
| 20260508074005 | 89 | 181 | 6.0 | 12.0 | 0.00 | 0.00 | 0.00 | 42 | 1010.3 |
| 20260508073802 | 89 | 135 | 6.0 | 12.0 | 0.00 | 0.00 | 0.00 | 42 | 1010.3 |
| 20260508073703 | 89 | 175 | 5.0 | 12.0 | 0.00 | 0.00 | 0.00 | 42 | 1010.4 |
| 20260508073602 | 89 | 94 | 4.0 | 15.0 | 0.00 | 0.00 | 0.00 | 42 | 1010.4 |
| 20260508073404 | 89 | 155 | 8.0 | 15.0 | 0.00 | 0.00 | 0.00 | 42 | 1010.4 |
| 20260508073302 | 89 | 169 | 8.0 | 15.0 | 0.00 | 0.00 | 0.00 | 41 | 1010.4 |
| 20260508073202 | 89 | 153 | 8.0 | 15.0 | 0.00 | 0.00 | 0.00 | 42 | 1010.4 |
| 20260508073102 | 89 | 88 | 7.0 | 15.0 | 0.00 | 0.00 | 0.00 | 42 | 1010.4 |
| 20260508073007 | 89 | 141 | 7.0 | 15.0 | 0.00 | 0.00 | 0.00 | 42 | 1010.4 |
| 20260508072802 | 89 | 173 | 6.0 | 15.0 | 0.00 | 0.00 | 0.00 | 42 | 1010.4 |
| 20260508072604 | 89 | 157 | 3.0 | 11.0 | 0.00 | 0.00 | 0.00 | 42 | 1010.3 |
| 20260508072508 | 89 | 109 | 5.0 | 11.0 | 0.00 | 0.00 | 0.00 | 41 | 1010.4 |
| 20260508072403 | 89 | 147 | 7.0 | 11.0 | 0.00 | 0.00 | 0.00 | 42 | 1010.5 |
| 20260508072307 | 89 | 138 | 6.0 | 12.0 | 0.00 | 0.00 | 0.00 | 43 | 1010.3 |
| 20260508072204 | 89 | 178 | 4.0 | 11.0 | 0.00 | 0.00 | 0.00 | 43 | 1010.4 |
| 20260508072103 | 89 | 123 | 6.0 | 11.0 | 0.00 | 0.00 | 0.00 | 42 | 1010.4 |
| 20260508072007 | 89 | 197 | 6.0 | 11.0 | 0.00 | 0.00 | 0.00 | 42 | 1010.5 |
| 20260508071902 | 89 | 138 | 5.0 | 11.0 | 0.00 | 0.00 | 0.00 | 43 | 1010.4 |
| 20260508071803 | 89 | 111 | 6.0 | 10.0 | 0.00 | 0.00 | 0.00 | 42 | 1010.4 |
| 20260508071705 | 89 | 136 | 6.0 | 10.0 | 0.00 | 0.00 | 0.00 | 42 | 1010.5 |
| 20260508071604 | 89 | 134 | 3.0 | 9.0 | 0.00 | 0.00 | 0.00 | 43 | 1010.5 |
| 20260508071507 | 89 | 127 | 4.0 | 9.0 | 0.00 | 0.00 | 0.00 | 43 | 1010.5 |
| 20260508071404 | 89 | 155 | 4.0 | 9.0 | 0.00 | 0.00 | 0.00 | 43 | 1010.5 |
| 20260508071304 | 88 | 133 | 2.0 | 10.0 | 0.00 | 0.00 | 0.00 | 43 | 1010.6 |
| 20260508071202 | 88 | 159 | 4.0 | 10.0 | 0.00 | 0.00 | 0.00 | 43 | 1010.6 |
| 20260508070902 | 88 | 159 | 3.0 | 10.0 | 0.00 | 0.00 | 0.00 | 43 | 1010.6 |
| 20260508070801 | 88 | 155 | 5.0 | 10.0 | 0.00 | 0.00 | 0.00 | 43 | 1010.6 |
| 20260508070703 | 88 | 96 | 6.0 | 10.0 | 0.00 | 0.00 | 0.00 | 43 | 1010.6 |
| 20260508070604 | 88 | 103 | 5.0 | 10.0 | 0.00 | 0.00 | 0.00 | 42 | 1010.6 |
| 20260508070505 | 88 | 118 | 6.0 | 10.0 | 0.00 | 0.00 | 0.00 | 43 | 1010.6 |
| 20260508070304 | 88 | 137 | 5.0 | 12.0 | 0.00 | 0.00 | 0.00 | 44 | 1010.6 |
| 20260508070204 | 88 | 173 | 5.0 | 12.0 | 0.00 | 0.00 | 0.00 | 44 | 1010.7 |
| 20260508070009 | 88 | 153 | 4.0 | 12.0 | 0.00 | 0.00 | 0.00 | 45 | 1010.6 |
| 20260508065905 | 88 | 171 | 5.0 | 12.0 | 0.00 | 0.00 | 0.00 | 45 | 1010.7 |
| 20260508065802 | 88 | 160 | 6.0 | 12.0 | 0.00 | 0.00 | 0.00 | 44 | 1010.7 |
| 20260508065705 | 88 | 173 | 7.0 | 14.0 | 0.00 | 0.00 | 0.00 | 43 | 1010.7 |
| 20260508065603 | 88 | 169 | 8.0 | 14.0 | 0.00 | 0.00 | 0.00 | 44 | 1010.7 |
| 20260508065503 | 88 | 161 | 8.0 | 14.0 | 0.00 | 0.00 | 0.00 | 44 | 1010.8 |
| 20260508065402 | 88 | 176 | 8.0 | 14.0 | 0.00 | 0.00 | 0.00 | 44 | 1010.7 |
| 20260508065306 | 88 | 138 | 9.0 | 14.0 | 0.00 | 0.00 | 0.00 | 44 | 1010.8 |
| 20260508065204 | 88 | 173 | 9.0 | 14.0 | 0.00 | 0.00 | 0.00 | 43 | 1010.7 |
| 20260508065102 | 88 | 166 | 9.0 | 14.0 | 0.00 | 0.00 | 0.00 | 43 | 1010.8 |
| 20260508065004 | 88 | 165 | 9.0 | 14.0 | 0.00 | 0.00 | 0.00 | 43 | 1010.9 |
| 20260508064803 | 88 | 161 | 7.0 | 11.0 | 0.00 | 0.00 | 0.00 | 43 | 1010.9 |
| 20260508064704 | 88 | 130 | 7.0 | 11.0 | 0.00 | 0.00 | 0.00 | 43 | 1010.9 |
| 20260508064602 | 88 | 139 | 7.0 | 11.0 | 0.00 | 0.00 | 0.00 | 43 | 1010.8 |
| 20260508064506 | 88 | 217 | 8.0 | 10.0 | 0.00 | 0.00 | 0.00 | 43 | 1010.9 |
| 20260508064403 | 88 | 159 | 6.0 | 10.0 | 0.00 | 0.00 | 0.00 | 43 | 1010.9 |
| 20260508064304 | 88 | 150 | 5.0 | 10.0 | 0.00 | 0.00 | 0.00 | 44 | 1010.9 |
| 20260508064204 | 88 | 159 | 4.0 | 10.0 | 0.00 | 0.00 | 0.00 | 44 | 1010.9 |
| 20260508064106 | 88 | 175 | 3.0 | 10.0 | 0.00 | 0.00 | 0.00 | 43 | 1010.9 |
| 20260508064007 | 88 | 163 | 3.0 | 10.0 | 0.00 | 0.00 | 0.00 | 43 | 1010.9 |
| 20260508063902 | 87 | 134 | 5.0 | 10.0 | 0.00 | 0.00 | 0.00 | 43 | 1011.0 |
| 20260508063800 | 87 | 165 | 6.0 | 10.0 | 0.00 | 0.00 | 0.00 | 44 | 1010.9 |
| 20260508063702 | 87 | 177 | 5.0 | 10.0 | 0.00 | 0.00 | 0.00 | 44 | 1011.0 |
| 20260508063602 | 87 | 181 | 3.0 | 10.0 | 0.00 | 0.00 | 0.00 | 44 | 1010.8 |
| 20260508063506 | 87 | 259 | 4.0 | 9.0 | 0.00 | 0.00 | 0.00 | 44 | 1010.9 |
| 20260508063403 | 87 | 157 | 6.0 | 9.0 | 0.00 | 0.00 | 0.00 | 43 | 1010.9 |
| 20260508063304 | 87 | 178 | 5.0 | 8.0 | 0.00 | 0.00 | 0.00 | 43 | 1010.9 |
| 20260508063203 | 87 | 166 | 3.0 | 9.0 | 0.00 | 0.00 | 0.00 | 42 | 1010.9 |
| 20260508063007 | 87 | 114 | 4.0 | 10.0 | 0.00 | 0.00 | 0.00 | 43 | 1011.0 |
| 20260508062904 | 87 | 122 | 4.0 | 10.0 | 0.00 | 0.00 | 0.00 | 44 | 1010.9 |
| 20260508062802 | 87 | 185 | 5.0 | 10.0 | 0.00 | 0.00 | 0.00 | 43 | 1011.0 |
| 20260508062704 | 87 | 146 | 6.0 | 10.0 | 0.00 | 0.00 | 0.00 | 44 | 1011.0 |
| 20260508062602 | 87 | 161 | 5.0 | 10.0 | 0.00 | 0.00 | 0.00 | 44 | 1011.0 |
| 20260508062504 | 87 | 167 | 5.0 | 10.0 | 0.00 | 0.00 | 0.00 | 44 | 1011.0 |
| 20260508062403 | 87 | 186 | 6.0 | 10.0 | 0.00 | 0.00 | 0.00 | 44 | 1011.0 |
| 20260508062306 | 87 | 180 | 6.0 | 10.0 | 0.00 | 0.00 | 0.00 | 44 | 1011.0 |
| 20260508062104 | 87 | 208 | 4.0 | 9.0 | 0.00 | 0.00 | 0.00 | 43 | 1011.0 |
| 20260508062005 | 87 | 170 | 5.0 | 9.0 | 0.00 | 0.00 | 0.00 | 43 | 1011.1 |
| 20260508061904 | 87 | 178 | 5.0 | 9.0 | 0.00 | 0.00 | 0.00 | 43 | 1011.1 |
| 20260508061804 | 87 | 167 | 4.0 | 8.0 | 0.00 | 0.00 | 0.00 | 44 | 1011.1 |
| 20260508061704 | 87 | 192 | 3.0 | 8.0 | 0.00 | 0.00 | 0.00 | 45 | 1011.0 |
| 20260508061504 | 87 | 141 | 3.0 | 8.0 | 0.00 | 0.00 | 0.00 | 44 | 1011.0 |
| 20260508061305 | 86 | 177 | 2.0 | 9.0 | 0.00 | 0.00 | 0.00 | 44 | 1011.0 |
| 20260508061203 | 86 | 131 | 3.0 | 9.0 | 0.00 | 0.00 | 0.00 | 44 | 1011.1 |
| 20260508061008 | 86 | 140 | 4.0 | 9.0 | 0.00 | 0.00 | 0.00 | 44 | 1011.0 |
| 20260508060904 | 86 | 179 | 3.0 | 9.0 | 0.00 | 0.00 | 0.00 | 45 | 1011.1 |
| 20260508060804 | 86 | 190 | 3.0 | 10.0 | 0.00 | 0.00 | 0.00 | 44 | 1011.1 |
| 20260508060704 | 86 | 151 | 4.0 | 10.0 | 0.00 | 0.00 | 0.00 | 44 | 1011.1 |
| 20260508060605 | 86 | 163 | 5.0 | 10.0 | 0.00 | 0.00 | 0.00 | 45 | 1011.1 |
| 20260508060505 | 86 | 174 | 6.0 | 10.0 | 0.00 | 0.00 | 0.00 | 44 | 1011.1 |
| 20260508060404 | 86 | 169 | 6.0 | 10.0 | 0.00 | 0.00 | 0.00 | 44 | 1011.0 |
| 20260508060303 | 86 | 205 | 5.0 | 10.0 | 0.00 | 0.00 | 0.00 | 45 | 1011.1 |
| 20260508060202 | 86 | 148 | 6.0 | 10.0 | 0.00 | 0.00 | 0.00 | 45 | 1011.2 |
| 20260508060004 | 86 | 149 | 6.0 | 10.0 | 0.00 | 0.00 | 0.00 | 45 | 1011.1 |
| 20260508055903 | 86 | 175 | 4.0 | 9.0 | 0.00 | 0.00 | 0.00 | 45 | 1011.1 |
| 20260508055802 | 86 | 178 | 3.0 | 9.0 | 0.00 | 0.00 | 0.00 | 46 | 1011.1 |
| 20260508055701 | 86 | 134 | 5.0 | 9.0 | 0.00 | 0.00 | 0.00 | 45 | 1011.1 |
| 20260508055603 | 86 | 129 | 6.0 | 9.0 | 0.00 | 0.00 | 0.00 | 46 | 1011.1 |
| 20260508055505 | 86 | 181 | 7.0 | 9.0 | 0.00 | 0.00 | 0.00 | 45 | 1011.1 |
| 20260508055402 | 86 | 177 | 8.0 | 11.0 | 0.00 | 0.00 | 0.00 | 46 | 1011.1 |
| 20260508055305 | 86 | 165 | 7.0 | 9.0 | 0.00 | 0.00 | 0.00 | 46 | 1011.2 |
| 20260508055102 | 86 | 165 | 6.0 | 8.0 | 0.00 | 0.00 | 0.00 | 46 | 1011.1 |
| 20260508055005 | 85 | 177 | 4.0 | 9.0 | 0.00 | 0.00 | 0.00 | 46 | 1011.1 |
| 20260508054901 | 85 | 170 | 2.0 | 8.0 | 0.00 | 0.00 | 0.00 | 46 | 1011.1 |
| 20260508054801 | 85 | 138 | 3.0 | 8.0 | 0.00 | 0.00 | 0.00 | 46 | 1011.1 |
| 20260508054701 | 85 | 162 | 3.0 | 8.0 | 0.00 | 0.00 | 0.00 | 46 | 1011.1 |
| 20260508054604 | 85 | 105 | 4.0 | 8.0 | 0.00 | 0.00 | 0.00 | 46 | 1011.1 |
| 20260508054505 | 85 | 172 | 3.0 | 8.0 | 0.00 | 0.00 | 0.00 | 46 | 1011.1 |
| 20260508054302 | 85 | 166 | 4.0 | 9.0 | 0.00 | 0.00 | 0.00 | 46 | 1011.1 |
| 20260508054201 | 85 | 153 | 2.0 | 7.0 | 0.00 | 0.00 | 0.00 | 47 | 1011.1 |
| 20260508054102 | 85 | 153 | 1.0 | 10.0 | 0.00 | 0.00 | 0.00 | 47 | 1011.1 |
| 20260508054004 | 85 | 188 | 4.0 | 10.0 | 0.00 | 0.00 | 0.00 | 46 | 1011.1 |
| 20260508053903 | 85 | 177 | 5.0 | 10.0 | 0.00 | 0.00 | 0.00 | 46 | 1011.1 |
| 20260508053801 | 85 | 171 | 3.0 | 10.0 | 0.00 | 0.00 | 0.00 | 47 | 1011.1 |
| 20260508053701 | 85 | 151 | 3.0 | 10.0 | 0.00 | 0.00 | 0.00 | 47 | 1011.1 |
| 20260508053401 | 85 | 195 | 6.0 | 10.0 | 0.00 | 0.00 | 0.00 | 46 | 1011.2 |
| 20260508053301 | 85 | 155 | 7.0 | 10.0 | 0.00 | 0.00 | 0.00 | 47 | 1011.1 |
| 20260508053203 | 85 | 181 | 5.0 | 12.0 | 0.00 | 0.00 | 0.00 | 47 | 1011.1 |
| 20260508053102 | 85 | 169 | 4.0 | 10.0 | 0.00 | 0.00 | 0.00 | 47 | 1011.1 |
| 20260508053006 | 85 | 161 | 5.0 | 10.0 | 0.00 | 0.00 | 0.00 | 47 | 1011.2 |
| 20260508052901 | 85 | 169 | 7.0 | 10.0 | 0.00 | 0.00 | 0.00 | 47 | 1011.1 |
| 20260508052803 | 85 | 138 | 6.0 | 11.0 | 0.00 | 0.00 | 0.00 | 47 | 1011.1 |
| 20260508052659 | 85 | 103 | 4.0 | 11.0 | 0.00 | 0.00 | 0.00 | 47 | 1011.1 |
| 20260508052601 | 85 | 151 | 4.0 | 11.0 | 0.00 | 0.00 | 0.00 | 47 | 1011.1 |
| 20260508052506 | 85 | 103 | 5.0 | 11.0 | 0.00 | 0.00 | 0.00 | 47 | 1011.2 |
| 20260508052403 | 85 | 163 | 6.0 | 11.0 | 0.00 | 0.00 | 0.00 | 47 | 1011.2 |
| 20260508052306 | 85 | 157 | 6.0 | 11.0 | 0.00 | 0.00 | 0.00 | 47 | 1011.1 |
| 20260508052201 | 85 | 158 | 5.0 | 11.0 | 0.00 | 0.00 | 0.00 | 46 | 1011.1 |
| 20260508052102 | 85 | 175 | 7.0 | 11.0 | 0.00 | 0.00 | 0.00 | 46 | 1011.2 |
| 20260508052005 | 85 | 157 | 7.0 | 11.0 | 0.00 | 0.00 | 0.00 | 47 | 1011.2 |
| 20260508051804 | 84 | 148 | 4.0 | 9.0 | 0.00 | 0.00 | 0.00 | 47 | 1011.2 |
| 20260508051702 | 84 | 140 | 4.0 | 9.0 | 0.00 | 0.00 | 0.00 | 47 | 1011.2 |
| 20260508051602 | 84 | 173 | 5.0 | 9.0 | 0.00 | 0.00 | 0.00 | 47 | 1011.2 |
| 20260508051503 | 84 | 131 | 6.0 | 9.0 | 0.00 | 0.00 | 0.00 | 47 | 1011.2 |
| 20260508051401 | 84 | 125 | 5.0 | 9.0 | 0.00 | 0.00 | 0.00 | 47 | 1011.2 |
| 20260508051302 | 84 | 136 | 3.0 | 9.0 | 0.00 | 0.00 | 0.00 | 47 | 1011.2 |
| 20260508051202 | 84 | 168 | 4.0 | 9.0 | 0.00 | 0.00 | 0.00 | 48 | 1011.3 |
| 20260508050901 | 84 | 126 | 5.0 | 11.0 | 0.00 | 0.00 | 0.00 | 47 | 1011.2 |
| 20260508050801 | 84 | 153 | 6.0 | 11.0 | 0.00 | 0.00 | 0.00 | 47 | 1011.2 |
| 20260508050702 | 84 | 173 | 6.0 | 11.0 | 0.00 | 0.00 | 0.00 | 47 | 1011.2 |
| 20260508050601 | 84 | 124 | 6.0 | 11.0 | 0.00 | 0.00 | 0.00 | 47 | 1011.2 |
| 20260508050505 | 84 | 153 | 6.0 | 11.0 | 0.00 | 0.00 | 0.00 | 47 | 1011.2 |
| 20260508050202 | 84 | 138 | 7.0 | 11.0 | 0.00 | 0.00 | 0.00 | 48 | 1011.2 |
| 20260508050009 | 84 | 132 | 4.0 | 11.0 | 0.00 | 0.00 | 0.00 | 48 | 1011.3 |
| 20260508045903 | 84 | 140 | 4.0 | 11.0 | 0.00 | 0.00 | 0.00 | 48 | 1011.3 |
| 20260508045802 | 84 | 91 | 6.0 | 11.0 | 0.00 | 0.00 | 0.00 | 49 | 1011.3 |
| 20260508045702 | 84 | 148 | 5.0 | 11.0 | 0.00 | 0.00 | 0.00 | 48 | 1011.3 |
| 20260508045603 | 84 | 128 | 4.0 | 11.0 | 0.00 | 0.00 | 0.00 | 49 | 1011.3 |
| 20260508045505 | 84 | 91 | 5.0 | 11.0 | 0.00 | 0.00 | 0.00 | 48 | 1011.3 |
| 20260508045306 | 84 | 153 | 7.0 | 11.0 | 0.00 | 0.00 | 0.00 | 48 | 1011.3 |
| 20260508045204 | 84 | 161 | 8.0 | 11.0 | 0.00 | 0.00 | 0.00 | 48 | 1011.2 |
| 20260508045105 | 84 | 165 | 7.0 | 12.0 | 0.00 | 0.00 | 0.00 | 49 | 1011.2 |
| 20260508045017 | 84 | 181 | 5.0 | 10.0 | 0.00 | 0.00 | 0.00 | 49 | 1011.2 |
| 20260508044904 | 84 | 128 | 3.0 | 11.0 | 0.00 | 0.00 | 0.00 | 49 | 1011.1 |
| 20260508044805 | 84 | 132 | 4.0 | 11.0 | 0.00 | 0.00 | 0.00 | 50 | 1011.1 |
| 20260508044700 | 84 | 146 | 4.0 | 11.0 | 0.00 | 0.00 | 0.00 | 49 | 1011.2 |
| 20260508044605 | 84 | 154 | 4.0 | 11.0 | 0.00 | 0.00 | 0.00 | 49 | 1011.2 |
| 20260508044506 | 84 | 180 | 5.0 | 11.0 | 0.00 | 0.00 | 0.00 | 50 | 1011.2 |
| 20260508044404 | 84 | 179 | 6.0 | 11.0 | 0.00 | 0.00 | 0.00 | 50 | 1011.1 |
| 20260508044303 | 84 | 154 | 5.0 | 11.0 | 0.00 | 0.00 | 0.00 | 50 | 1011.2 |
| 20260508044203 | 83 | 173 | 6.0 | 11.0 | 0.00 | 0.00 | 0.00 | 49 | 1011.2 |
| 20260508044105 | 83 | 145 | 6.0 | 11.0 | 0.00 | 0.00 | 0.00 | 49 | 1011.2 |
| 20260508044006 | 83 | 163 | 4.0 | 11.0 | 0.00 | 0.00 | 0.00 | 50 | 1011.2 |
| 20260508043903 | 83 | 167 | 5.0 | 11.0 | 0.00 | 0.00 | 0.00 | 50 | 1011.2 |
| 20260508043807 | 83 | 130 | 6.0 | 11.0 | 0.00 | 0.00 | 0.00 | 49 | 1011.2 |
| 20260508043704 | 83 | 146 | 6.0 | 11.0 | 0.00 | 0.00 | 0.00 | 49 | 1011.2 |
| 20260508043505 | 83 | 140 | 8.0 | 11.0 | 0.00 | 0.00 | 0.00 | 49 | 1011.1 |
| 20260508043304 | 83 | 142 | 6.0 | 10.0 | 0.00 | 0.00 | 0.00 | 50 | 1011.1 |
| 20260508043204 | 83 | 142 | 4.0 | 10.0 | 0.00 | 0.00 | 0.00 | 51 | 1011.1 |
| 20260508043106 | 83 | 159 | 3.0 | 10.0 | 0.00 | 0.00 | 0.00 | 52 | 1011.1 |
| 20260508043008 | 83 | 184 | 3.0 | 10.0 | 0.00 | 0.00 | 0.00 | 51 | 1011.1 |
| 20260508042905 | 83 | 175 | 4.0 | 10.0 | 0.00 | 0.00 | 0.00 | 51 | 1011.1 |
| 20260508042802 | 83 | 161 | 5.0 | 10.0 | 0.00 | 0.00 | 0.00 | 51 | 1011.1 |
| 20260508042704 | 83 | 95 | 6.0 | 10.0 | 0.00 | 0.00 | 0.00 | 51 | 1011.1 |
| 20260508042602 | 83 | 188 | 5.0 | 10.0 | 0.00 | 0.00 | 0.00 | 51 | 1011.2 |
| 20260508042504 | 83 | 137 | 6.0 | 10.0 | 0.00 | 0.00 | 0.00 | 51 | 1011.2 |
| 20260508042407 | 83 | 148 | 7.0 | 10.0 | 0.00 | 0.00 | 0.00 | 51 | 1011.2 |
| 20260508042203 | 83 | 167 | 4.0 | 10.0 | 0.00 | 0.00 | 0.00 | 53 | 1011.1 |
| 20260508042108 | 83 | 151 | 5.0 | 10.0 | 0.00 | 0.00 | 0.00 | 53 | 1011.1 |
| 20260508042008 | 82 | 101 | 6.0 | 10.0 | 0.00 | 0.00 | 0.00 | 53 | 1011.1 |
| 20260508041903 | 82 | 144 | 7.0 | 10.0 | 0.00 | 0.00 | 0.00 | 53 | 1011.1 |
| 20260508041804 | 82 | 117 | 6.0 | 10.0 | 0.00 | 0.00 | 0.00 | 53 | 1011.1 |
| 20260508041704 | 82 | 148 | 5.0 | 10.0 | 0.00 | 0.00 | 0.00 | 54 | 1011.1 |
| 20260508041606 | 82 | 140 | 5.0 | 10.0 | 0.00 | 0.00 | 0.00 | 53 | 1011.1 |
| 20260508041504 | 82 | 119 | 6.0 | 10.0 | 0.00 | 0.00 | 0.00 | 54 | 1011.1 |
| 20260508041303 | 82 | 132 | 5.0 | 10.0 | 0.00 | 0.00 | 0.00 | 53 | 1011.1 |
| 20260508041104 | 82 | 171 | 4.0 | 10.0 | 0.00 | 0.00 | 0.00 | 54 | 1011.1 |
| 20260508041007 | 82 | 189 | 3.0 | 10.0 | 0.00 | 0.00 | 0.00 | 54 | 1011.1 |
| 20260508040903 | 82 | 173 | 3.0 | 10.0 | 0.00 | 0.00 | 0.00 | 54 | 1011.2 |
| 20260508040805 | 82 | 174 | 3.0 | 10.0 | 0.00 | 0.00 | 0.00 | 54 | 1011.2 |
| 20260508040604 | 82 | 113 | 6.0 | 10.0 | 0.00 | 0.00 | 0.00 | 55 | 1011.2 |
| 20260508040405 | 82 | 144 | 3.0 | 9.0 | 0.00 | 0.00 | 0.00 | 55 | 1011.1 |
| 20260508040303 | 82 | 105 | 4.0 | 9.0 | 0.00 | 0.00 | 0.00 | 54 | 1011.2 |
| 20260508040203 | 81 | 149 | 4.0 | 9.0 | 0.00 | 0.00 | 0.00 | 55 | 1011.2 |
| 20260508040007 | 81 | 134 | 5.0 | 9.0 | 0.00 | 0.00 | 0.00 | 55 | 1011.1 |
| 20260508035759 | 81 | 60 | 3.0 | 8.0 | 0.00 | 0.00 | 0.00 | 56 | 1011.0 |
| 20260508035702 | 81 | 118 | 3.0 | 8.0 | 0.00 | 0.00 | 0.00 | 56 | 1011.0 |
| 20260508035603 | 81 | 161 | 3.0 | 8.0 | 0.00 | 0.00 | 0.00 | 56 | 1011.0 |
| 20260508035505 | 81 | 62 | 3.0 | 8.0 | 0.00 | 0.00 | 0.00 | 56 | 1011.0 |
| 20260508035403 | 81 | 143 | 3.0 | 9.0 | 0.00 | 0.00 | 0.00 | 56 | 1011.0 |
| 20260508035306 | 81 | 80 | 3.0 | 9.0 | 0.00 | 0.00 | 0.00 | 56 | 1011.0 |
| 20260508035202 | 81 | 144 | 4.0 | 9.0 | 0.00 | 0.00 | 0.00 | 56 | 1011.0 |
| 20260508035102 | 81 | 134 | 4.0 | 9.0 | 0.00 | 0.00 | 0.00 | 56 | 1011.0 |
| 20260508035006 | 81 | 137 | 4.0 | 9.0 | 0.00 | 0.00 | 0.00 | 56 | 1011.0 |
| 20260508034901 | 81 | 130 | 4.0 | 10.0 | 0.00 | 0.00 | 0.00 | 56 | 1011.0 |
| 20260508034803 | 81 | 79 | 5.0 | 10.0 | 0.00 | 0.00 | 0.00 | 56 | 1011.0 |
| 20260508034701 | 81 | 129 | 6.0 | 10.0 | 0.00 | 0.00 | 0.00 | 56 | 1011.0 |
| 20260508034601 | 81 | 113 | 5.0 | 10.0 | 0.00 | 0.00 | 0.00 | 56 | 1011.1 |
| 20260508034404 | 81 | 156 | 3.0 | 10.0 | 0.00 | 0.00 | 0.00 | 57 | 1011.2 |
| 20260508034301 | 80 | 124 | 5.0 | 10.0 | 0.00 | 0.00 | 0.00 | 57 | 1011.1 |
| 20260508034202 | 80 | 112 | 6.0 | 10.0 | 0.00 | 0.00 | 0.00 | 57 | 1011.1 |
| 20260508034004 | 80 | 133 | 3.0 | 8.0 | 0.00 | 0.00 | 0.00 | 57 | 1011.2 |
| 20260508033901 | 80 | 112 | 3.0 | 8.0 | 0.00 | 0.00 | 0.00 | 57 | 1011.1 |
| 20260508033802 | 80 | 134 | 3.0 | 8.0 | 0.00 | 0.00 | 0.00 | 57 | 1011.2 |
| 20260508033703 | 80 | 150 | 3.0 | 8.0 | 0.00 | 0.00 | 0.00 | 57 | 1011.1 |
| 20260508033602 | 80 | 69 | 3.0 | 8.0 | 0.00 | 0.00 | 0.00 | 57 | 1011.1 |
| 20260508033401 | 80 | 103 | 4.0 | 8.0 | 0.00 | 0.00 | 0.00 | 58 | 1011.2 |
| 20260508033303 | 80 | 15 | 3.0 | 8.0 | 0.00 | 0.00 | 0.00 | 59 | 1011.2 |
| 20260508033101 | 80 | 61 | 3.0 | 8.0 | 0.00 | 0.00 | 0.00 | 59 | 1011.2 |
| 20260508033006 | 80 | 72 | 2.0 | 7.0 | 0.00 | 0.00 | 0.00 | 60 | 1011.2 |
| 20260508032902 | 80 | 20 | 2.0 | 10.0 | 0.00 | 0.00 | 0.00 | 60 | 1011.3 |
| 20260508032802 | 80 | 56 | 2.0 | 10.0 | 0.00 | 0.00 | 0.00 | 60 | 1011.2 |
| 20260508032700 | 80 | 153 | 3.0 | 10.0 | 0.00 | 0.00 | 0.00 | 60 | 1011.2 |
| 20260508032600 | 80 | 105 | 3.0 | 10.0 | 0.00 | 0.00 | 0.00 | 60 | 1011.2 |
| 20260508032503 | 80 | 109 | 3.0 | 10.0 | 0.00 | 0.00 | 0.00 | 60 | 1011.3 |
| 20260508032405 | 80 | 131 | 4.0 | 10.0 | 0.00 | 0.00 | 0.00 | 59 | 1011.2 |
| 20260508032306 | 80 | 137 | 5.0 | 10.0 | 0.00 | 0.00 | 0.00 | 60 | 1011.2 |
| 20260508032201 | 80 | 108 | 4.0 | 10.0 | 0.00 | 0.00 | 0.00 | 60 | 1011.3 |
| 20260508032102 | 80 | 136 | 4.0 | 9.0 | 0.00 | 0.00 | 0.00 | 60 | 1011.2 |
| 20260508032005 | 80 | 119 | 4.0 | 9.0 | 0.00 | 0.00 | 0.00 | 60 | 1011.2 |
| 20260508031901 | 79 | 121 | 4.0 | 9.0 | 0.00 | 0.00 | 0.00 | 60 | 1011.2 |
| 20260508031801 | 79 | 96 | 6.0 | 9.0 | 0.00 | 0.00 | 0.00 | 60 | 1011.3 |
| 20260508031701 | 79 | 53 | 4.0 | 9.0 | 0.00 | 0.00 | 0.00 | 60 | 1011.3 |
| 20260508031602 | 79 | 107 | 2.0 | 7.0 | 0.00 | 0.00 | 0.00 | 61 | 1011.3 |
| 20260508031503 | 79 | 79 | 4.0 | 7.0 | 0.00 | 0.00 | 0.00 | 61 | 1011.2 |
| 20260508031359 | 79 | 113 | 3.0 | 7.0 | 0.00 | 0.00 | 0.00 | 61 | 1011.2 |
| 20260508031301 | 79 | 108 | 2.0 | 7.0 | 0.00 | 0.00 | 0.00 | 61 | 1011.2 |
| 20260508031201 | 79 | 152 | 2.0 | 7.0 | 0.00 | 0.00 | 0.00 | 61 | 1011.2 |
| 20260508031004 | 79 | 130 | 3.0 | 8.0 | 0.00 | 0.00 | 0.00 | 61 | 1011.2 |
| 20260508030904 | 79 | 121 | 3.0 | 8.0 | 0.00 | 0.00 | 0.00 | 61 | 1011.2 |
| 20260508030800 | 79 | 75 | 3.0 | 8.0 | 0.00 | 0.00 | 0.00 | 61 | 1011.2 |
| 20260508030601 | 79 | 73 | 4.0 | 10.0 | 0.00 | 0.00 | 0.00 | 62 | 1011.2 |
| 20260508030506 | 79 | 136 | 4.0 | 10.0 | 0.00 | 0.00 | 0.00 | 62 | 1011.2 |
| 20260508030405 | 78 | 74 | 5.0 | 10.0 | 0.00 | 0.00 | 0.00 | 62 | 1011.2 |
| 20260508030104 | 78 | 132 | 5.0 | 10.0 | 0.00 | 0.00 | 0.00 | 62 | 1011.2 |
| 20260508030009 | 78 | 123 | 5.0 | 10.0 | 0.00 | 0.00 | 0.00 | 62 | 1011.2 |
| 20260508025902 | 78 | 113 | 5.0 | 10.0 | 0.00 | 0.00 | 0.00 | 62 | 1011.1 |
| 20260508025803 | 78 | 55 | 5.0 | 9.0 | 0.00 | 0.00 | 0.00 | 62 | 1011.1 |
| 20260508025603 | 78 | 72 | 5.0 | 11.0 | 0.00 | 0.00 | 0.00 | 62 | 1011.1 |
| 20260508025505 | 78 | 109 | 4.0 | 11.0 | 0.00 | 0.00 | 0.00 | 62 | 1011.1 |
| 20260508025305 | 78 | 99 | 6.0 | 11.0 | 0.00 | 0.00 | 0.00 | 62 | 1011.1 |
| 20260508025204 | 78 | 103 | 6.0 | 11.0 | 0.00 | 0.00 | 0.00 | 62 | 1011.1 |
| 20260508025106 | 78 | 110 | 5.0 | 11.0 | 0.00 | 0.00 | 0.00 | 62 | 1011.2 |
| 20260508025005 | 78 | 65 | 6.0 | 11.0 | 0.00 | 0.00 | 0.00 | 62 | 1011.1 |
| 20260508024900 | 78 | 108 | 6.0 | 11.0 | 0.00 | 0.00 | 0.00 | 63 | 1011.1 |
| 20260508024602 | 77 | 75 | 5.0 | 11.0 | 0.00 | 0.00 | 0.00 | 63 | 1011.1 |
| 20260508024403 | 77 | 155 | 4.0 | 11.0 | 0.00 | 0.00 | 0.00 | 63 | 1011.0 |
| 20260508024304 | 77 | 109 | 6.0 | 11.0 | 0.00 | 0.00 | 0.00 | 63 | 1011.0 |
| 20260508024203 | 77 | 128 | 7.0 | 11.0 | 0.00 | 0.00 | 0.00 | 63 | 1011.1 |
| 20260508024006 | 77 | 111 | 7.0 | 10.0 | 0.00 | 0.00 | 0.00 | 63 | 1011.0 |
| 20260508023903 | 77 | 136 | 5.0 | 10.0 | 0.00 | 0.00 | 0.00 | 63 | 1011.0 |
| 20260508023602 | 77 | 132 | 6.0 | 9.0 | 0.00 | 0.00 | 0.00 | 63 | 1011.0 |
| 20260508023504 | 77 | 109 | 4.0 | 9.0 | 0.00 | 0.00 | 0.00 | 63 | 1011.0 |
| 20260508023304 | 77 | 157 | 2.0 | 10.0 | 0.00 | 0.00 | 0.00 | 64 | 1010.9 |
| 20260508023203 | 77 | 98 | 2.0 | 10.0 | 0.00 | 0.00 | 0.00 | 63 | 1011.0 |
| 20260508023106 | 77 | 94 | 2.0 | 10.0 | 0.00 | 0.00 | 0.00 | 63 | 1011.0 |
| 20260508023030 | 77 | 91 | 4.0 | 10.0 | 0.00 | 0.00 | 0.00 | 63 | 1010.9 |
| 20260508022820 | 77 | 73 | 6.0 | 10.0 | 0.00 | 0.00 | 0.00 | 63 | 1011.0 |
| 20260508022722 | 77 | 85 | 7.0 | 10.0 | 0.00 | 0.00 | 0.00 | 63 | 1010.9 |
| 20260508022405 | 77 | 96 | 5.0 | 9.0 | 0.00 | 0.00 | 0.00 | 63 | 1011.0 |
| 20260508022306 | 77 | 96 | 5.0 | 9.0 | 0.00 | 0.00 | 0.00 | 64 | 1011.0 |
| 20260508022204 | 77 | 76 | 6.0 | 9.0 | 0.00 | 0.00 | 0.00 | 64 | 1010.9 |
| 20260508022103 | 77 | 116 | 4.0 | 9.0 | 0.00 | 0.00 | 0.00 | 64 | 1011.0 |
| 20260508022008 | 77 | 105 | 3.0 | 8.0 | 0.00 | 0.00 | 0.00 | 64 | 1011.0 |
| 20260508021902 | 77 | 104 | 4.0 | 8.0 | 0.00 | 0.00 | 0.00 | 64 | 1010.9 |
| 20260508021803 | 76 | 115 | 4.0 | 8.0 | 0.00 | 0.00 | 0.00 | 64 | 1010.9 |
| 20260508021703 | 76 | 101 | 3.0 | 10.0 | 0.00 | 0.00 | 0.00 | 64 | 1011.0 |
| 20260508021603 | 76 | 32 | 3.0 | 10.0 | 0.00 | 0.00 | 0.00 | 64 | 1011.0 |
| 20260508021504 | 76 | 90 | 5.0 | 10.0 | 0.00 | 0.00 | 0.00 | 64 | 1011.0 |
| 20260508021402 | 76 | 59 | 5.0 | 10.0 | 0.00 | 0.00 | 0.00 | 64 | 1011.0 |
| 20260508021305 | 76 | 103 | 3.0 | 10.0 | 0.00 | 0.00 | 0.00 | 65 | 1011.0 |
| 20260508021204 | 76 | 106 | 3.0 | 10.0 | 0.00 | 0.00 | 0.00 | 64 | 1011.0 |
| 20260508021010 | 76 | 128 | 4.0 | 10.0 | 0.00 | 0.00 | 0.00 | 64 | 1011.0 |
| 20260508020904 | 76 | 123 | 5.0 | 10.0 | 0.00 | 0.00 | 0.00 | 64 | 1011.0 |
| 20260508020803 | 76 | 109 | 6.0 | 9.0 | 0.00 | 0.00 | 0.00 | 64 | 1011.1 |
| 20260508020705 | 76 | 108 | 6.0 | 9.0 | 0.00 | 0.00 | 0.00 | 64 | 1011.0 |
| 20260508020510 | 76 | 140 | 5.0 | 9.0 | 0.00 | 0.00 | 0.00 | 65 | 1011.0 |
| 20260508020403 | 76 | 132 | 5.0 | 9.0 | 0.00 | 0.00 | 0.00 | 65 | 1011.0 |
| 20260508020304 | 76 | 104 | 4.0 | 9.0 | 0.00 | 0.00 | 0.00 | 65 | 1011.0 |
| 20260508020204 | 76 | 130 | 5.0 | 9.0 | 0.00 | 0.00 | 0.00 | 65 | 1011.0 |
| 20260508020104 | 76 | 157 | 5.0 | 11.0 | 0.00 | 0.00 | 0.00 | 65 | 1011.0 |
| 20260508020009 | 76 | 117 | 4.0 | 11.0 | 0.00 | 0.00 | 0.00 | 65 | 1011.0 |
| 20260508015903 | 76 | 10 | 3.0 | 11.0 | 0.00 | 0.00 | 0.00 | 65 | 1010.9 |
| 20260508015806 | 76 | 138 | 3.0 | 11.0 | 0.00 | 0.00 | 0.00 | 65 | 1010.9 |
| 20260508015704 | 76 | 107 | 4.0 | 11.0 | 0.00 | 0.00 | 0.00 | 65 | 1010.9 |
| 20260508015604 | 76 | 76 | 5.0 | 11.0 | 0.00 | 0.00 | 0.00 | 65 | 1010.8 |
| 20260508015506 | 76 | 109 | 6.0 | 11.0 | 0.00 | 0.00 | 0.00 | 65 | 1010.9 |
| 20260508015203 | 76 | 102 | 8.0 | 11.0 | 0.00 | 0.00 | 0.00 | 65 | 1010.8 |
| 20260508015104 | 76 | 119 | 5.0 | 9.0 | 0.00 | 0.00 | 0.00 | 65 | 1010.8 |
| 20260508015008 | 76 | 105 | 3.0 | 8.0 | 0.00 | 0.00 | 0.00 | 65 | 1010.8 |
| 20260508014905 | 76 | 155 | 2.0 | 8.0 | 0.00 | 0.00 | 0.00 | 65 | 1010.8 |
| 20260508014804 | 76 | 99 | 2.0 | 8.0 | 0.00 | 0.00 | 0.00 | 65 | 1010.8 |
| 20260508014702 | 76 | 167 | 4.0 | 8.0 | 0.00 | 0.00 | 0.00 | 65 | 1010.9 |
| 20260508014605 | 76 | 146 | 4.0 | 8.0 | 0.00 | 0.00 | 0.00 | 65 | 1010.9 |
| 20260508014505 | 76 | 91 | 4.0 | 9.0 | 0.00 | 0.00 | 0.00 | 65 | 1010.8 |
| 20260508014406 | 76 | 117 | 5.0 | 9.0 | 0.00 | 0.00 | 0.00 | 65 | 1010.9 |
| 20260508014304 | 76 | 121 | 5.0 | 9.0 | 0.00 | 0.00 | 0.00 | 65 | 1010.7 |
| 20260508014205 | 76 | 122 | 4.0 | 9.0 | 0.00 | 0.00 | 0.00 | 65 | 1010.7 |
| 20260508014105 | 76 | 113 | 3.0 | 9.0 | 0.00 | 0.00 | 0.00 | 65 | 1010.7 |
| 20260508014006 | 76 | 87 | 4.0 | 9.0 | 0.00 | 0.00 | 0.00 | 65 | 1010.6 |
| 20260508013803 | 76 | 122 | 5.0 | 9.0 | 0.00 | 0.00 | 0.00 | 65 | 1010.6 |
| 20260508013604 | 76 | 152 | 4.0 | 8.0 | 0.00 | 0.00 | 0.00 | 65 | 1010.5 |
| 20260508013404 | 76 | 123 | 4.0 | 10.0 | 0.00 | 0.00 | 0.00 | 65 | 1010.4 |
| 20260508013303 | 76 | 120 | 3.0 | 10.0 | 0.00 | 0.00 | 0.00 | 65 | 1010.4 |
| 20260508013204 | 76 | 128 | 4.0 | 10.0 | 0.00 | 0.00 | 0.00 | 65 | 1010.5 |
| 20260508013102 | 76 | 111 | 5.0 | 10.0 | 0.00 | 0.00 | 0.00 | 65 | 1010.5 |
| 20260508013005 | 76 | 64 | 4.0 | 10.0 | 0.00 | 0.00 | 0.00 | 65 | 1010.5 |
| 20260508012904 | 76 | 123 | 3.0 | 10.0 | 0.00 | 0.00 | 0.00 | 65 | 1010.5 |
| 20260508012804 | 76 | 109 | 5.0 | 10.0 | 0.00 | 0.00 | 0.00 | 65 | 1010.5 |
| 20260508012602 | 76 | 112 | 6.0 | 10.0 | 0.00 | 0.00 | 0.00 | 65 | 1010.4 |
| 20260508012403 | 76 | 107 | 5.0 | 10.0 | 0.00 | 0.00 | 0.00 | 65 | 1010.4 |
| 20260508012307 | 76 | 103 | 3.0 | 10.0 | 0.00 | 0.00 | 0.00 | 65 | 1010.4 |
| 20260508012007 | 76 | 118 | 4.0 | 10.0 | 0.00 | 0.00 | 0.00 | 65 | 1010.4 |
| 20260508011905 | 76 | 97 | 4.0 | 10.0 | 0.00 | 0.00 | 0.00 | 65 | 1010.4 |
| 20260508011803 | 76 | 156 | 6.0 | 10.0 | 0.00 | 0.00 | 0.00 | 65 | 1010.4 |
| 20260508011704 | 76 | 89 | 6.0 | 10.0 | 0.00 | 0.00 | 0.00 | 65 | 1010.3 |
| 20260508011604 | 76 | 99 | 5.0 | 10.0 | 0.00 | 0.00 | 0.00 | 65 | 1010.4 |
| 20260508011400 | 76 | 104 | 7.0 | 10.0 | 0.00 | 0.00 | 0.00 | 65 | 1010.3 |
| 20260508011304 | 76 | 103 | 5.0 | 10.0 | 0.00 | 0.00 | 0.00 | 66 | 1010.3 |
| 20260508011204 | 76 | 114 | 4.0 | 9.0 | 0.00 | 0.00 | 0.00 | 66 | 1010.3 |
| 20260508011103 | 76 | 114 | 4.0 | 9.0 | 0.00 | 0.00 | 0.00 | 66 | 1010.3 |
| 20260508011005 | 76 | 100 | 4.0 | 9.0 | 0.00 | 0.00 | 0.00 | 66 | 1010.4 |
| 20260508010903 | 76 | 113 | 3.0 | 9.0 | 0.00 | 0.00 | 0.00 | 66 | 1010.4 |
| 20260508010804 | 76 | 86 | 2.0 | 9.0 | 0.00 | 0.00 | 0.00 | 66 | 1010.3 |
| 20260508010604 | 76 | 113 | 5.0 | 9.0 | 0.00 | 0.00 | 0.00 | 66 | 1010.3 |
| 20260508010506 | 76 | 119 | 5.0 | 9.0 | 0.00 | 0.00 | 0.00 | 66 | 1010.4 |
| 20260508010405 | 75 | 137 | 4.0 | 9.0 | 0.00 | 0.00 | 0.00 | 66 | 1010.3 |
| 20260508010303 | 75 | 88 | 5.0 | 9.0 | 0.00 | 0.00 | 0.00 | 66 | 1010.3 |
| 20260508010203 | 75 | 110 | 6.0 | 9.0 | 0.00 | 0.00 | 0.00 | 66 | 1010.3 |
| 20260508010104 | 75 | 104 | 4.0 | 9.0 | 0.00 | 0.00 | 0.00 | 67 | 1010.2 |
| 20260508010007 | 75 | 127 | 3.0 | 10.0 | 0.00 | 0.00 | 0.00 | 67 | 1010.3 |
| 20260508005902 | 75 | 107 | 2.0 | 10.0 | 0.00 | 0.00 | 0.00 | 67 | 1010.3 |
| 20260508005801 | 75 | 109 | 3.0 | 10.0 | 0.00 | 0.00 | 0.00 | 67 | 1010.2 |
| 20260508005701 | 75 | 143 | 4.0 | 10.0 | 0.00 | 0.00 | 0.00 | 67 | 1010.2 |
| 20260508005604 | 75 | 107 | 3.0 | 10.0 | 0.00 | 0.00 | 0.00 | 67 | 1010.2 |
| 20260508005504 | 75 | 111 | 3.0 | 10.0 | 0.00 | 0.00 | 0.00 | 67 | 1010.2 |
| 20260508005410 | 75 | 76 | 5.0 | 10.0 | 0.00 | 0.00 | 0.00 | 67 | 1010.2 |
| 20260508005222 | 75 | 117 | 5.0 | 10.0 | 0.00 | 0.00 | 0.00 | 67 | 1010.1 |
| 20260508004204 | 75 | 92 | 3.0 | 9.0 | 0.00 | 0.00 | 0.00 | 68 | 1010.2 |
| 20260508004005 | 75 | 106 | 4.0 | 9.0 | 0.00 | 0.00 | 0.00 | 68 | 1010.1 |
| 20260508003906 | 75 | 94 | 3.0 | 9.0 | 0.00 | 0.00 | 0.00 | 68 | 1010.1 |
| 20260508003405 | 75 | 134 | 4.0 | 9.0 | 0.00 | 0.00 | 0.00 | 68 | 1010.0 |
| 20260508003102 | 75 | 86 | 4.0 | 8.0 | 0.00 | 0.00 | 0.00 | 68 | 1010.1 |
| 20260508003006 | 75 | 83 | 4.0 | 8.0 | 0.00 | 0.00 | 0.00 | 68 | 1010.1 |
| 20260508002901 | 75 | 82 | 4.0 | 8.0 | 0.00 | 0.00 | 0.00 | 68 | 1010.1 |
| 20260508002800 | 75 | 80 | 4.0 | 8.0 | 0.00 | 0.00 | 0.00 | 68 | 1010.0 |
| 20260508002702 | 75 | 83 | 3.0 | 8.0 | 0.00 | 0.00 | 0.00 | 68 | 1010.1 |
| 20260508002604 | 75 | 84 | 2.0 | 7.0 | 0.00 | 0.00 | 0.00 | 68 | 1010.1 |
| 20260508002503 | 75 | 81 | 2.0 | 7.0 | 0.00 | 0.00 | 0.00 | 68 | 1010.1 |
| 20260508002402 | 75 | 98 | 3.0 | 7.0 | 0.00 | 0.00 | 0.00 | 68 | 1010.1 |
| 20260508002306 | 75 | 139 | 3.0 | 7.0 | 0.00 | 0.00 | 0.00 | 68 | 1010.1 |
| 20260508002201 | 75 | 133 | 3.0 | 7.0 | 0.00 | 0.00 | 0.00 | 68 | 1010.1 |
| 20260508002101 | 75 | 141 | 2.0 | 4.0 | 0.00 | 0.00 | 0.00 | 68 | 1010.1 |
| 20260508002006 | 75 | 80 | 2.0 | 4.0 | 0.00 | 0.00 | 0.00 | 68 | 1010.0 |
| 20260508001802 | 75 | 53 | 1.0 | 4.0 | 0.00 | 0.00 | 0.00 | 67 | 1010.0 |
| 20260508001702 | 76 | 32 | 2.0 | 4.0 | 0.00 | 0.00 | 0.00 | 67 | 1010.0 |
| 20260508001503 | 75 | 76 | 2.0 | 4.0 | 0.00 | 0.00 | 0.00 | 67 | 1010.0 |
| 20260508001402 | 76 | 88 | 1.0 | 4.0 | 0.00 | 0.00 | 0.00 | 67 | 1010.0 |
| 20260508001202 | 76 | 135 | 1.0 | 4.0 | 0.00 | 0.00 | 0.00 | 67 | 1009.9 |
| 20260508001102 | 76 | 112 | 2.0 | 4.0 | 0.00 | 0.00 | 0.00 | 67 | 1010.0 |
| 20260508001004 | 76 | 89 | 1.0 | 4.0 | 0.00 | 0.00 | 0.00 | 67 | 1010.0 |
| 20260508000906 | 76 | 116 | 1.0 | 4.0 | 0.00 | 0.00 | 0.00 | 67 | 1010.0 |
| 20260508000802 | 76 | 68 | 2.0 | 4.0 | 0.00 | 0.00 | 0.00 | 67 | 1009.9 |
| 20260508000700 | 76 | 110 | 2.0 | 4.0 | 0.00 | 0.00 | 0.00 | 67 | 1009.9 |
| 20260508000601 | 76 | 122 | 2.0 | 4.0 | 0.00 | 0.00 | 0.00 | 67 | 1009.9 |
| 20260508000505 | 76 | 65 | 2.0 | 6.0 | 0.00 | 0.00 | 0.00 | 67 | 1009.9 |
| 20260508000305 | 76 | 90 | 2.0 | 6.0 | 0.00 | 0.00 | 0.00 | 67 | 1009.9 |
| 20260508000201 | 76 | 58 | 2.0 | 6.0 | 0.00 | 0.00 | 0.00 | 67 | 1009.8 |
| 20260508000004 | 76 | 93 | 2.0 | 6.0 | 0.00 | 0.00 | 0.00 | 67 | 1009.7 |
| 20260507235900 | 76 | 22 | 2.0 | 6.0 | 0.00 | 0.00 | 0.00 | 67 | 1009.7 |
| 20260507235758 | 76 | 135 | 2.0 | 6.0 | 0.00 | 0.00 | 0.00 | 67 | 1009.7 |
| 20260507235702 | 76 | 84 | 3.0 | 6.0 | 0.00 | 0.00 | 0.00 | 67 | 1009.8 |
| 20260507235601 | 76 | 107 | 3.0 | 6.0 | 0.00 | 0.00 | 0.00 | 67 | 1009.7 |
| 20260507235503 | 76 | 89 | 4.0 | 6.0 | 0.00 | 0.00 | 0.00 | 67 | 1009.6 |
| 20260507235403 | 76 | 98 | 3.0 | 6.0 | 0.00 | 0.00 | 0.00 | 67 | 1009.7 |
| 20260507235300 | 76 | 91 | 2.0 | 6.0 | 0.00 | 0.00 | 0.00 | 66 | 1009.7 |
| 20260507235201 | 76 | 72 | 2.0 | 6.0 | 0.00 | 0.00 | 0.00 | 66 | 1009.7 |
| 20260507235101 | 76 | 94 | 2.0 | 6.0 | 0.00 | 0.00 | 0.00 | 66 | 1009.6 |
| 20260507235005 | 76 | 94 | 2.0 | 6.0 | 0.00 | 0.00 | 0.00 | 66 | 1009.8 |
| 20260507234903 | 76 | 72 | 2.0 | 6.0 | 0.00 | 0.00 | 0.00 | 66 | 1009.7 |
| 20260507234800 | 76 | 84 | 2.0 | 6.0 | 0.00 | 0.00 | 0.00 | 66 | 1009.7 |
| 20260507234702 | 76 | 113 | 2.0 | 6.0 | 0.00 | 0.00 | 0.00 | 66 | 1009.7 |
| 20260507234603 | 76 | 76 | 2.0 | 6.0 | 0.00 | 0.00 | 0.00 | 66 | 1009.6 |
| 20260507234503 | 76 | 103 | 2.0 | 6.0 | 0.00 | 0.00 | 0.00 | 66 | 1009.6 |
| 20260507234301 | 76 | 91 | 2.0 | 6.0 | 0.00 | 0.00 | 0.00 | 66 | 1009.6 |
| 20260507234201 | 76 | 78 | 1.0 | 4.0 | 0.00 | 0.00 | 0.00 | 66 | 1009.7 |
| 20260507234100 | 76 | 48 | 1.0 | 4.0 | 0.00 | 0.00 | 0.00 | 66 | 1009.6 |
| 20260507234006 | 76 | 64 | 1.0 | 4.0 | 0.00 | 0.00 | 0.00 | 66 | 1009.7 |
| 20260507233901 | 76 | 99 | 1.0 | 6.0 | 0.00 | 0.00 | 0.00 | 66 | 1009.7 |
| 20260507233802 | 76 | 88 | 1.0 | 6.0 | 0.00 | 0.00 | 0.00 | 66 | 1009.7 |
| 20260507233702 | 76 | 123 | 1.0 | 6.0 | 0.00 | 0.00 | 0.00 | 66 | 1009.6 |
| 20260507233503 | 76 | 136 | 1.0 | 6.0 | 0.00 | 0.00 | 0.00 | 66 | 1009.7 |
| 20260507233402 | 76 | 130 | 1.0 | 6.0 | 0.00 | 0.00 | 0.00 | 66 | 1009.6 |
| 20260507233302 | 76 | 119 | 2.0 | 6.0 | 0.00 | 0.00 | 0.00 | 66 | 1009.6 |
| 20260507233101 | 76 | 96 | 3.0 | 6.0 | 0.00 | 0.00 | 0.00 | 66 | 1009.6 |
| 20260507233007 | 76 | 103 | 2.0 | 7.0 | 0.00 | 0.00 | 0.00 | 66 | 1009.6 |
| 20260507232904 | 76 | 71 | 2.0 | 7.0 | 0.00 | 0.00 | 0.00 | 66 | 1009.6 |
| 20260507232802 | 76 | 86 | 3.0 | 7.0 | 0.00 | 0.00 | 0.00 | 66 | 1009.6 |
| 20260507232700 | 76 | 133 | 3.0 | 7.0 | 0.00 | 0.00 | 0.00 | 66 | 1009.6 |
| 20260507232601 | 76 | 128 | 2.0 | 7.0 | 0.00 | 0.00 | 0.00 | 66 | 1009.6 |
| 20260507232500 | 76 | 112 | 3.0 | 7.0 | 0.00 | 0.00 | 0.00 | 66 | 1009.6 |
| 20260507232401 | 76 | 115 | 4.0 | 7.0 | 0.00 | 0.00 | 0.00 | 66 | 1009.6 |
| 20260507232306 | 76 | 100 | 3.0 | 7.0 | 0.00 | 0.00 | 0.00 | 66 | 1009.6 |
| 20260507232202 | 76 | 98 | 2.0 | 7.0 | 0.00 | 0.00 | 0.00 | 66 | 1009.7 |
| 20260507231902 | 76 | 98 | 3.0 | 6.0 | 0.00 | 0.00 | 0.00 | 66 | 1009.6 |
| 20260507231800 | 76 | 107 | 2.0 | 6.0 | 0.00 | 0.00 | 0.00 | 66 | 1009.6 |
| 20260507231701 | 76 | 80 | 1.0 | 5.0 | 0.00 | 0.00 | 0.00 | 66 | 1009.6 |
| 20260507231600 | 76 | 59 | 2.0 | 5.0 | 0.00 | 0.00 | 0.00 | 66 | 1009.5 |
| 20260507231505 | 76 | 59 | 3.0 | 5.0 | 0.00 | 0.00 | 0.00 | 66 | 1009.6 |
| 20260507231401 | 76 | 69 | 2.0 | 5.0 | 0.00 | 0.00 | 0.00 | 65 | 1009.6 |
| 20260507231303 | 76 | 70 | 1.0 | 5.0 | 0.00 | 0.00 | 0.00 | 65 | 1009.6 |
| 20260507231100 | 76 | 117 | 2.0 | 5.0 | 0.00 | 0.00 | 0.00 | 65 | 1009.5 |
| 20260507231004 | 76 | 55 | 2.0 | 6.0 | 0.00 | 0.00 | 0.00 | 65 | 1009.5 |
| 20260507230901 | 76 | 101 | 2.0 | 6.0 | 0.00 | 0.00 | 0.00 | 65 | 1009.4 |
| 20260507230801 | 76 | 120 | 2.0 | 6.0 | 0.00 | 0.00 | 0.00 | 65 | 1009.5 |
| 20260507230703 | 76 | 115 | 2.0 | 6.0 | 0.00 | 0.00 | 0.00 | 65 | 1009.4 |
| 20260507230606 | 76 | 77 | 3.0 | 6.0 | 0.00 | 0.00 | 0.00 | 65 | 1009.4 |
| 20260507225410 | 77 | 99 | 3.0 | 7.0 | 0.00 | 0.00 | 0.00 | 65 | 1009.5 |
| 20260507225306 | 77 | 101 | 4.0 | 7.0 | 0.00 | 0.00 | 0.00 | 65 | 1009.4 |
| 20260507224204 | 77 | 82 | 4.0 | 8.0 | 0.00 | 0.00 | 0.00 | 65 | 1009.3 |
| 20260507224101 | 77 | 78 | 3.0 | 8.0 | 0.00 | 0.00 | 0.00 | 65 | 1009.2 |
| 20260507224006 | 77 | 95 | 3.0 | 8.0 | 0.00 | 0.00 | 0.00 | 65 | 1009.2 |
| 20260507223903 | 77 | 100 | 2.0 | 8.0 | 0.00 | 0.00 | 0.00 | 65 | 1009.3 |
| 20260507223802 | 77 | 93 | 2.0 | 8.0 | 0.00 | 0.00 | 0.00 | 65 | 1009.3 |
| 20260507223701 | 77 | 115 | 3.0 | 8.0 | 0.00 | 0.00 | 0.00 | 65 | 1009.3 |
| 20260507223602 | 77 | 93 | 4.0 | 8.0 | 0.00 | 0.00 | 0.00 | 65 | 1009.3 |
| 20260507223505 | 77 | 116 | 4.0 | 8.0 | 0.00 | 0.00 | 0.00 | 65 | 1009.2 |
| 20260507223401 | 77 | 99 | 3.0 | 8.0 | 0.00 | 0.00 | 0.00 | 65 | 1009.2 |
| 20260507223102 | 77 | 88 | 3.0 | 7.0 | 0.00 | 0.00 | 0.00 | 65 | 1009.2 |
| 20260507223005 | 77 | 96 | 3.0 | 6.0 | 0.00 | 0.00 | 0.00 | 65 | 1009.2 |
| 20260507222903 | 77 | 73 | 3.0 | 6.0 | 0.00 | 0.00 | 0.00 | 65 | 1009.2 |
| 20260507222802 | 77 | 105 | 3.0 | 6.0 | 0.00 | 0.00 | 0.00 | 65 | 1009.2 |
| 20260507222703 | 77 | 72 | 3.0 | 6.0 | 0.00 | 0.00 | 0.00 | 65 | 1009.2 |
| 20260507222603 | 77 | 85 | 2.0 | 6.0 | 0.00 | 0.00 | 0.00 | 65 | 1009.2 |
| 20260507222504 | 77 | 96 | 1.0 | 6.0 | 0.00 | 0.00 | 0.00 | 65 | 1009.2 |
| 20260507222401 | 77 | 69 | 2.0 | 6.0 | 0.00 | 0.00 | 0.00 | 65 | 1009.2 |
| 20260507222202 | 77 | 69 | 2.0 | 6.0 | 0.00 | 0.00 | 0.00 | 65 | 1009.2 |
| 20260507222100 | 77 | 123 | 2.0 | 6.0 | 0.00 | 0.00 | 0.00 | 65 | 1009.2 |
| 20260507222007 | 77 | 111 | 2.0 | 6.0 | 0.00 | 0.00 | 0.00 | 65 | 1009.2 |
| 20260507221902 | 77 | 91 | 3.0 | 6.0 | 0.00 | 0.00 | 0.00 | 65 | 1009.2 |
| 20260507221801 | 77 | 68 | 3.0 | 6.0 | 0.00 | 0.00 | 0.00 | 65 | 1009.2 |
| 20260507221703 | 77 | 105 | 3.0 | 5.0 | 0.00 | 0.00 | 0.00 | 65 | 1009.3 |
| 20260507221503 | 77 | 105 | 3.0 | 5.0 | 0.00 | 0.00 | 0.00 | 65 | 1009.2 |
| 20260507221404 | 77 | 90 | 1.0 | 5.0 | 0.00 | 0.00 | 0.00 | 65 | 1009.2 |
| 20260507221301 | 77 | 107 | 1.0 | 5.0 | 0.00 | 0.00 | 0.00 | 65 | 1009.2 |
| 20260507221102 | 77 | 110 | 2.0 | 5.0 | 0.00 | 0.00 | 0.00 | 65 | 1009.2 |
| 20260507221007 | 77 | 132 | 2.0 | 6.0 | 0.00 | 0.00 | 0.00 | 65 | 1009.2 |
| 20260507220901 | 77 | 74 | 1.0 | 6.0 | 0.00 | 0.00 | 0.00 | 65 | 1009.2 |
| 20260507220803 | 77 | 112 | 1.0 | 6.0 | 0.00 | 0.00 | 0.00 | 65 | 1009.2 |
| 20260507220702 | 77 | 119 | 2.0 | 6.0 | 0.00 | 0.00 | 0.00 | 65 | 1009.2 |
| 20260507220602 | 77 | 103 | 2.0 | 6.0 | 0.00 | 0.00 | 0.00 | 65 | 1009.2 |
| 20260507220504 | 77 | 67 | 1.0 | 6.0 | 0.00 | 0.00 | 0.00 | 65 | 1009.2 |
| 20260507220302 | 77 | 101 | 2.0 | 6.0 | 0.00 | 0.00 | 0.00 | 65 | 1009.2 |
| 20260507220201 | 77 | 86 | 2.0 | 6.0 | 0.00 | 0.00 | 0.00 | 65 | 1009.1 |
| 20260507220101 | 77 | 32 | 2.0 | 8.0 | 0.00 | 0.00 | 0.00 | 65 | 1009.1 |
| 20260507220011 | 77 | 25 | 1.0 | 8.0 | 0.00 | 0.00 | 0.00 | 65 | 1009.1 |
| 20260507215801 | 78 | 108 | 2.0 | 8.0 | 0.00 | 0.00 | 0.00 | 65 | 1009.1 |
| 20260507215601 | 78 | 74 | 1.0 | 8.0 | 0.00 | 0.00 | 0.00 | 65 | 1009.1 |
| 20260507215504 | 78 | 54 | 1.0 | 8.0 | 0.00 | 0.00 | 0.00 | 65 | 1009.1 |
| 20260507215301 | 78 | 69 | 4.0 | 8.0 | 0.00 | 0.00 | 0.00 | 64 | 1009.1 |
| 20260507215202 | 78 | 98 | 3.0 | 8.0 | 0.00 | 0.00 | 0.00 | 65 | 1009.1 |
| 20260507215102 | 78 | 86 | 3.0 | 6.0 | 0.00 | 0.00 | 0.00 | 65 | 1009.0 |
| 20260507215003 | 78 | 81 | 3.0 | 6.0 | 0.00 | 0.00 | 0.00 | 64 | 1009.0 |
| 20260507214902 | 78 | 105 | 3.0 | 7.0 | 0.00 | 0.00 | 0.00 | 64 | 1009.0 |
| 20260507214702 | 78 | 96 | 3.0 | 7.0 | 0.00 | 0.00 | 0.00 | 64 | 1009.0 |
| 20260507214503 | 78 | 80 | 4.0 | 7.0 | 0.00 | 0.00 | 0.00 | 64 | 1009.1 |
| 20260507214402 | 78 | 65 | 3.0 | 7.0 | 0.00 | 0.00 | 0.00 | 64 | 1009.1 |
| 20260507214203 | 78 | 36 | 4.0 | 7.0 | 0.00 | 0.00 | 0.00 | 64 | 1009.0 |
| 20260507214102 | 78 | 118 | 3.0 | 7.0 | 0.00 | 0.00 | 0.00 | 64 | 1009.0 |
| 20260507214005 | 78 | 94 | 3.0 | 7.0 | 0.00 | 0.00 | 0.00 | 64 | 1009.1 |
| 20260507213901 | 78 | 101 | 3.0 | 7.0 | 0.00 | 0.00 | 0.00 | 64 | 1009.0 |
| 20260507213801 | 78 | 125 | 2.0 | 7.0 | 0.00 | 0.00 | 0.00 | 64 | 1009.1 |
| 20260507213701 | 78 | 113 | 2.0 | 7.0 | 0.00 | 0.00 | 0.00 | 64 | 1009.1 |
| 20260507213601 | 78 | 105 | 2.0 | 7.0 | 0.00 | 0.00 | 0.00 | 64 | 1009.1 |
| 20260507213504 | 78 | 39 | 3.0 | 7.0 | 0.00 | 0.00 | 0.00 | 64 | 1009.1 |
| 20260507213402 | 78 | 71 | 4.0 | 7.0 | 0.00 | 0.00 | 0.00 | 64 | 1009.1 |
| 20260507213302 | 78 | 113 | 3.0 | 7.0 | 0.00 | 0.00 | 0.00 | 64 | 1009.1 |
| 20260507213204 | 78 | 89 | 3.0 | 7.0 | 0.00 | 0.00 | 0.00 | 64 | 1009.1 |
| 20260507213102 | 78 | 137 | 3.0 | 7.0 | 0.00 | 0.00 | 0.00 | 64 | 1009.1 |
| 20260507213004 | 78 | 100 | 2.0 | 6.0 | 0.00 | 0.00 | 0.00 | 64 | 1009.2 |
| 20260507212905 | 78 | 75 | 2.0 | 6.0 | 0.00 | 0.00 | 0.00 | 64 | 1009.1 |
| 20260507212800 | 78 | 98 | 2.0 | 6.0 | 0.00 | 0.00 | 0.00 | 64 | 1009.1 |
| 20260507212600 | 78 | 97 | 2.0 | 7.0 | 0.00 | 0.00 | 0.00 | 64 | 1009.2 |
| 20260507212401 | 78 | 73 | 2.0 | 7.0 | 0.00 | 0.00 | 0.00 | 64 | 1009.2 |
| 20260507212200 | 78 | 103 | 3.0 | 8.0 | 0.00 | 0.00 | 0.00 | 63 | 1009.2 |
| 20260507212101 | 78 | 111 | 4.0 | 8.0 | 0.00 | 0.00 | 0.00 | 63 | 1009.2 |
| 20260507212005 | 78 | 101 | 3.0 | 8.0 | 0.00 | 0.00 | 0.00 | 63 | 1009.2 |
| 20260507211901 | 78 | 142 | 2.0 | 8.0 | 0.00 | 0.00 | 0.00 | 63 | 1009.2 |
| 20260507211402 | 79 | 94 | 3.0 | 8.0 | 0.00 | 0.00 | 0.00 | 63 | 1009.2 |
| 20260507211302 | 79 | 100 | 2.0 | 7.0 | 0.00 | 0.00 | 0.00 | 63 | 1009.2 |
| 20260507211101 | 79 | 96 | 3.0 | 7.0 | 0.00 | 0.00 | 0.00 | 63 | 1009.2 |
| 20260507211008 | 79 | 105 | 3.0 | 5.0 | 0.00 | 0.00 | 0.00 | 63 | 1009.2 |
| 20260507210912 | 79 | 101 | 3.0 | 8.0 | 0.00 | 0.00 | 0.00 | 63 | 1009.2 |
| 20260507210800 | 79 | 65 | 3.0 | 8.0 | 0.00 | 0.00 | 0.00 | 63 | 1009.2 |
| 20260507210701 | 79 | 115 | 3.0 | 8.0 | 0.00 | 0.00 | 0.00 | 63 | 1009.2 |
| 20260507210602 | 79 | 111 | 4.0 | 8.0 | 0.00 | 0.00 | 0.00 | 63 | 1009.2 |
| 20260507210404 | 79 | 117 | 3.0 | 11.0 | 0.00 | 0.00 | 0.00 | 63 | 1009.1 |
| 20260507210305 | 79 | 107 | 3.0 | 11.0 | 0.00 | 0.00 | 0.00 | 63 | 1009.1 |
| 20260507210202 | 79 | 126 | 3.0 | 11.0 | 0.00 | 0.00 | 0.00 | 63 | 1009.1 |
| 20260507210009 | 79 | 124 | 4.0 | 11.0 | 0.00 | 0.00 | 0.00 | 63 | 1009.0 |
| 20260507205903 | 79 | 124 | 4.0 | 11.0 | 0.00 | 0.00 | 0.00 | 63 | 1009.1 |
| 20260507205805 | 79 | 140 | 4.0 | 11.0 | 0.00 | 0.00 | 0.00 | 63 | 1009.2 |
| 20260507205602 | 78 | 98 | 7.0 | 11.0 | 0.00 | 0.00 | 0.00 | 63 | 1009.1 |
| 20260507205306 | 78 | 113 | 4.0 | 10.0 | 0.00 | 0.00 | 0.00 | 63 | 1009.1 |
| 20260507205203 | 78 | 115 | 2.0 | 10.0 | 0.00 | 0.00 | 0.00 | 63 | 1009.1 |
| 20260507205102 | 78 | 98 | 2.0 | 10.0 | 0.00 | 0.00 | 0.00 | 63 | 1009.0 |
| 20260507205006 | 78 | 147 | 3.0 | 10.0 | 0.00 | 0.00 | 0.00 | 63 | 1009.0 |
| 20260507204902 | 78 | 130 | 3.0 | 10.0 | 0.00 | 0.00 | 0.00 | 63 | 1009.0 |
| 20260507204803 | 78 | 128 | 3.0 | 10.0 | 0.00 | 0.00 | 0.00 | 63 | 1009.0 |
| 20260507204701 | 78 | 142 | 5.0 | 10.0 | 0.00 | 0.00 | 0.00 | 63 | 1009.0 |
| 20260507204602 | 78 | 132 | 6.0 | 10.0 | 0.00 | 0.00 | 0.00 | 63 | 1009.1 |
| 20260507204503 | 78 | 114 | 4.0 | 8.0 | 0.00 | 0.00 | 0.00 | 64 | 1009.0 |
| 20260507204402 | 78 | 115 | 4.0 | 7.0 | 0.00 | 0.00 | 0.00 | 64 | 1009.1 |
| 20260507204302 | 78 | 108 | 3.0 | 7.0 | 0.00 | 0.00 | 0.00 | 64 | 1009.1 |
| 20260507204201 | 78 | 79 | 3.0 | 7.0 | 0.00 | 0.00 | 0.00 | 64 | 1009.1 |
| 20260507204102 | 78 | 109 | 3.0 | 8.0 | 0.00 | 0.00 | 0.00 | 64 | 1009.0 |
| 20260507204004 | 78 | 68 | 4.0 | 8.0 | 0.00 | 0.00 | 0.00 | 64 | 1009.0 |
| 20260507203801 | 78 | 81 | 4.0 | 9.0 | 0.00 | 0.00 | 0.00 | 64 | 1009.0 |
| 20260507203703 | 78 | 115 | 4.0 | 9.0 | 0.00 | 0.00 | 0.00 | 64 | 1009.0 |
| 20260507203601 | 78 | 105 | 2.0 | 9.0 | 0.00 | 0.00 | 0.00 | 64 | 1009.1 |
| 20260507203503 | 78 | 91 | 3.0 | 9.0 | 0.00 | 0.00 | 0.00 | 64 | 1009.0 |
| 20260507203301 | 78 | 122 | 3.0 | 9.0 | 0.00 | 0.00 | 0.00 | 64 | 1009.0 |
| 20260507203203 | 78 | 112 | 5.0 | 9.0 | 0.00 | 0.00 | 0.00 | 64 | 1009.0 |
| 20260507203101 | 78 | 99 | 5.0 | 9.0 | 0.00 | 0.00 | 0.00 | 64 | 1009.0 |
| 20260507203006 | 78 | 119 | 4.0 | 9.0 | 0.00 | 0.00 | 0.00 | 64 | 1009.0 |
| 20260507202802 | 78 | 108 | 4.0 | 9.0 | 0.00 | 0.00 | 0.00 | 64 | 1009.0 |
| 20260507202659 | 78 | 90 | 5.0 | 9.0 | 0.00 | 0.00 | 0.00 | 64 | 1009.1 |
| 20260507202601 | 78 | 101 | 4.0 | 8.0 | 0.00 | 0.00 | 0.00 | 64 | 1009.1 |
| 20260507202506 | 78 | 115 | 3.0 | 8.0 | 0.00 | 0.00 | 0.00 | 64 | 1009.1 |
| 20260507202401 | 78 | 86 | 4.0 | 8.0 | 0.00 | 0.00 | 0.00 | 64 | 1009.0 |
| 20260507202306 | 78 | 88 | 4.0 | 8.0 | 0.00 | 0.00 | 0.00 | 64 | 1009.0 |
| 20260507202200 | 78 | 88 | 4.0 | 8.0 | 0.00 | 0.00 | 0.00 | 64 | 1008.9 |
| 20260507202101 | 78 | 112 | 3.0 | 8.0 | 0.00 | 0.00 | 0.00 | 64 | 1009.0 |
| 20260507202005 | 78 | 108 | 3.0 | 8.0 | 0.00 | 0.00 | 0.00 | 64 | 1009.0 |
| 20260507201903 | 78 | 114 | 4.0 | 8.0 | 0.00 | 0.00 | 0.00 | 64 | 1009.0 |
| 20260507201801 | 78 | 125 | 4.0 | 8.0 | 0.00 | 0.00 | 0.00 | 64 | 1009.0 |
| 20260507201702 | 78 | 96 | 4.0 | 8.0 | 0.00 | 0.00 | 0.00 | 64 | 1009.0 |
| 20260507201603 | 79 | 109 | 4.0 | 8.0 | 0.00 | 0.00 | 0.00 | 64 | 1008.9 |
| 20260507201500 | 79 | 94 | 3.0 | 8.0 | 0.00 | 0.00 | 0.00 | 64 | 1008.9 |
| 20260507200902 | 79 | 109 | 4.0 | 8.0 | 0.00 | 0.00 | 0.00 | 63 | 1008.9 |
| 20260507200703 | 79 | 132 | 4.0 | 7.0 | 0.00 | 0.00 | 0.00 | 63 | 1008.9 |
| 20260507200601 | 79 | 62 | 3.0 | 6.0 | 0.00 | 0.00 | 0.00 | 63 | 1008.9 |
| 20260507200507 | 79 | 126 | 3.0 | 6.0 | 0.00 | 0.00 | 0.00 | 63 | 1008.9 |
| 20260507200402 | 79 | 74 | 2.0 | 6.0 | 0.00 | 0.00 | 0.00 | 62 | 1008.9 |
| 20260507200303 | 79 | 82 | 2.0 | 6.0 | 0.00 | 0.00 | 0.00 | 63 | 1008.9 |
| 20260507200203 | 79 | 107 | 2.0 | 6.0 | 0.00 | 0.00 | 0.00 | 62 | 1008.9 |
| 20260507200103 | 80 | 84 | 3.0 | 8.0 | 0.00 | 0.00 | 0.00 | 62 | 1008.9 |
| 20260507200008 | 80 | 355 | 3.0 | 8.0 | 0.00 | 0.00 | 0.00 | 62 | 1008.9 |
| 20260507195906 | 80 | 116 | 4.0 | 9.0 | 0.00 | 0.00 | 0.00 | 62 | 1008.8 |
| 20260507195805 | 80 | 105 | 4.0 | 9.0 | 0.00 | 0.00 | 0.00 | 62 | 1008.8 |
| 20260507195509 | 80 | 113 | 2.0 | 9.0 | 0.00 | 0.00 | 0.00 | 61 | 1008.8 |
| 20260507195306 | 80 | 49 | 3.0 | 9.0 | 0.00 | 0.00 | 0.00 | 61 | 1008.8 |
| 20260507195205 | 81 | 106 | 4.0 | 9.0 | 0.00 | 0.00 | 0.00 | 61 | 1008.9 |
| 20260507195105 | 81 | 38 | 4.0 | 9.0 | 0.00 | 0.00 | 0.00 | 60 | 1008.8 |
| 20260507195010 | 81 | 146 | 3.0 | 9.0 | 0.00 | 0.00 | 0.00 | 60 | 1008.9 |
| 20260507194905 | 81 | 32 | 2.0 | 6.0 | 0.00 | 0.00 | 0.00 | 60 | 1008.8 |
| 20260507194706 | 81 | 56 | 4.0 | 6.0 | 0.00 | 0.00 | 0.00 | 59 | 1008.8 |
| 20260507194509 | 82 | 52 | 3.0 | 5.0 | 0.00 | 0.00 | 0.00 | 58 | 1008.8 |
| 20260507194405 | 82 | 48 | 2.0 | 5.0 | 0.00 | 0.00 | 0.00 | 58 | 1008.7 |
| 20260507194304 | 82 | 57 | 2.0 | 4.0 | 0.00 | 0.00 | 0.00 | 57 | 1008.6 |
| 20260507194103 | 82 | 125 | 1.0 | 3.0 | 0.00 | 0.00 | 0.00 | 57 | 1008.5 |
| 20260507194008 | 82 | 123 | 1.0 | 3.0 | 0.00 | 0.00 | 0.00 | 57 | 1008.5 |
| 20260507193904 | 82 | 119 | 0.0 | 2.0 | 0.00 | 0.00 | 0.00 | 57 | 1008.4 |
| 20260507193804 | 82 | 194 | 0.0 | 2.0 | 0.00 | 0.00 | 0.00 | 57 | 1008.4 |
| 20260507193704 | 82 | 194 | 0.0 | 2.0 | 0.00 | 0.00 | 0.00 | 57 | 1008.4 |
| 20260507193604 | 82 | 194 | 0.0 | 4.0 | 0.00 | 0.00 | 0.00 | 57 | 1008.4 |
| 20260507193509 | 82 | 207 | 0.0 | 4.0 | 0.00 | 0.00 | 0.00 | 57 | 1008.4 |
| 20260507193405 | 82 | 221 | 1.0 | 6.0 | 0.00 | 0.00 | 0.00 | 57 | 1008.3 |
| 20260507193307 | 82 | 168 | 0.0 | 7.0 | 0.00 | 0.00 | 0.00 | 57 | 1008.4 |
| 20260507193202 | 82 | 146 | 0.0 | 7.0 | 0.00 | 0.00 | 0.00 | 56 | 1008.5 |
| 20260507193104 | 82 | 121 | 0.0 | 7.0 | 0.00 | 0.00 | 0.00 | 57 | 1008.5 |
| 20260507193009 | 82 | 118 | 1.0 | 7.0 | 0.00 | 0.00 | 0.00 | 57 | 1008.4 |
| 20260507192805 | 82 | 134 | 2.0 | 7.0 | 0.00 | 0.00 | 0.00 | 57 | 1008.5 |
| 20260507192704 | 82 | 153 | 2.0 | 7.0 | 0.00 | 0.00 | 0.00 | 57 | 1008.4 |
| 20260507192604 | 82 | 134 | 3.0 | 7.0 | 0.00 | 0.00 | 0.00 | 56 | 1008.5 |
| 20260507192508 | 82 | 148 | 4.0 | 7.0 | 0.00 | 0.00 | 0.00 | 56 | 1008.4 |
| 20260507192404 | 82 | 132 | 3.0 | 7.0 | 0.00 | 0.00 | 0.00 | 57 | 1008.4 |
| 20260507192209 | 82 | 127 | 3.0 | 7.0 | 0.00 | 0.00 | 0.00 | 56 | 1008.4 |
| 20260507192104 | 82 | 134 | 2.0 | 7.0 | 0.00 | 0.00 | 0.00 | 56 | 1008.5 |
| 20260507192012 | 82 | 165 | 2.0 | 7.0 | 0.00 | 0.00 | 0.00 | 56 | 1008.4 |
| 20260507191904 | 82 | 196 | 3.0 | 7.0 | 0.00 | 0.00 | 0.00 | 56 | 1008.4 |
| 20260507191805 | 82 | 189 | 4.0 | 7.0 | 0.00 | 0.00 | 0.00 | 56 | 1008.4 |
| 20260507191703 | 82 | 167 | 2.0 | 5.0 | 0.00 | 0.00 | 0.00 | 56 | 1008.4 |
| 20260507191404 | 82 | 196 | 2.0 | 6.0 | 0.00 | 0.00 | 0.00 | 56 | 1008.3 |
| 20260507191305 | 82 | 211 | 2.0 | 6.0 | 0.00 | 0.00 | 0.00 | 56 | 1008.4 |
| 20260507191204 | 82 | 202 | 1.0 | 8.0 | 0.00 | 0.00 | 0.00 | 56 | 1008.3 |
| 20260507191105 | 82 | 207 | 1.0 | 8.0 | 0.00 | 0.00 | 0.00 | 56 | 1008.3 |
| 20260507190905 | 82 | 185 | 1.0 | 8.0 | 0.00 | 0.00 | 0.00 | 56 | 1008.4 |
| 20260507190806 | 82 | 163 | 2.0 | 8.0 | 0.00 | 0.00 | 0.00 | 56 | 1008.4 |
| 20260507190707 | 82 | 226 | 4.0 | 8.0 | 0.00 | 0.00 | 0.00 | 56 | 1008.4 |
| 20260507190609 | 82 | 186 | 4.0 | 8.0 | 0.00 | 0.00 | 0.00 | 56 | 1008.4 |
| 20260507190406 | 82 | 165 | 3.0 | 8.0 | 0.00 | 0.00 | 0.00 | 56 | 1008.4 |
| 20260507190314 | 82 | 192 | 2.0 | 5.0 | 0.00 | 0.00 | 0.00 | 56 | 1008.4 |
| 20260507190207 | 82 | 165 | 1.0 | 5.0 | 0.00 | 0.00 | 0.00 | 56 | 1008.5 |
| 20260507190014 | 82 | 196 | 2.0 | 8.0 | 0.00 | 0.00 | 0.00 | 56 | 1008.5 |
| 20260507185903 | 82 | 167 | 1.0 | 8.0 | 0.00 | 0.00 | 0.00 | 57 | 1008.6 |
| 20260507185804 | 82 | 187 | 2.0 | 8.0 | 0.00 | 0.00 | 0.00 | 57 | 1008.5 |
| 20260507185703 | 82 | 151 | 2.0 | 8.0 | 0.00 | 0.00 | 0.00 | 57 | 1008.6 |
| 20260507185605 | 82 | 124 | 2.0 | 8.0 | 0.00 | 0.00 | 0.00 | 57 | 1008.6 |
| 20260507185506 | 82 | 175 | 2.0 | 8.0 | 0.00 | 0.00 | 0.00 | 57 | 1008.6 |
| 20260507185405 | 82 | 115 | 3.0 | 8.0 | 0.00 | 0.00 | 0.00 | 57 | 1008.6 |
| 20260507185306 | 82 | 168 | 3.0 | 8.0 | 0.00 | 0.00 | 0.00 | 56 | 1008.6 |
| 20260507185203 | 82 | 121 | 2.0 | 8.0 | 0.00 | 0.00 | 0.00 | 57 | 1008.6 |
| 20260507185104 | 82 | 144 | 0.0 | 5.0 | 0.00 | 0.00 | 0.00 | 57 | 1008.5 |
| 20260507185006 | 82 | 126 | 1.0 | 7.0 | 0.00 | 0.00 | 0.00 | 57 | 1008.5 |
| 20260507184904 | 82 | 168 | 2.0 | 7.0 | 0.00 | 0.00 | 0.00 | 57 | 1008.5 |
| 20260507184804 | 82 | 140 | 2.0 | 7.0 | 0.00 | 0.00 | 0.00 | 57 | 1008.6 |
| 20260507184605 | 82 | 107 | 0.0 | 7.0 | 0.00 | 0.00 | 0.00 | 57 | 1008.6 |
| 20260507184507 | 82 | 127 | 1.0 | 7.0 | 0.00 | 0.00 | 0.00 | 57 | 1008.6 |
| 20260507184404 | 82 | 98 | 3.0 | 8.0 | 0.00 | 0.00 | 0.00 | 57 | 1008.6 |
| 20260507184303 | 82 | 98 | 4.0 | 8.0 | 0.00 | 0.00 | 0.00 | 56 | 1008.6 |
| 20260507184204 | 82 | 143 | 3.0 | 8.0 | 0.00 | 0.00 | 0.00 | 57 | 1008.6 |
| 20260507184104 | 83 | 123 | 2.0 | 8.0 | 0.00 | 0.00 | 0.00 | 57 | 1008.6 |
| 20260507184006 | 82 | 103 | 1.0 | 8.0 | 0.00 | 0.00 | 0.00 | 57 | 1008.6 |
| 20260507183805 | 83 | 161 | 2.0 | 8.0 | 0.00 | 0.00 | 0.00 | 56 | 1008.7 |
| 20260507183709 | 82 | 153 | 4.0 | 8.0 | 0.00 | 0.00 | 0.00 | 56 | 1008.7 |
| 20260507183517 | 82 | 144 | 3.0 | 5.0 | 0.00 | 0.00 | 0.00 | 56 | 1008.7 |
| 20260507183405 | 83 | 115 | 2.0 | 5.0 | 0.00 | 0.00 | 0.00 | 57 | 1008.7 |
| 20260507183116 | 82 | 126 | 3.0 | 4.0 | 0.00 | 0.00 | 0.00 | 56 | 1008.7 |
| 20260507182903 | 82 | 122 | 2.0 | 4.0 | 0.00 | 0.00 | 0.00 | 57 | 1008.8 |
| 20260507182805 | 82 | 121 | 2.0 | 6.0 | 0.00 | 0.00 | 0.00 | 57 | 1008.8 |
| 20260507182704 | 82 | 146 | 3.0 | 6.0 | 0.00 | 0.00 | 0.00 | 57 | 1008.8 |
| 20260507182605 | 82 | 118 | 3.0 | 6.0 | 0.00 | 0.00 | 0.00 | 57 | 1008.8 |
| 20260507182403 | 83 | 163 | 1.0 | 6.0 | 0.00 | 0.00 | 0.00 | 57 | 1008.8 |
| 20260507182306 | 83 | 123 | 1.0 | 6.0 | 0.00 | 0.00 | 0.00 | 57 | 1008.8 |
| 20260507182204 | 83 | 170 | 1.0 | 6.0 | 0.00 | 0.00 | 0.00 | 57 | 1008.9 |
| 20260507182107 | 83 | 161 | 1.0 | 6.0 | 0.00 | 0.00 | 0.00 | 57 | 1008.9 |
| 20260507182008 | 83 | 114 | 2.0 | 6.0 | 0.00 | 0.00 | 0.00 | 57 | 1008.8 |
| 20260507181903 | 83 | 146 | 1.0 | 4.0 | 0.00 | 0.00 | 0.00 | 57 | 1008.9 |
| 20260507181805 | 83 | 142 | 0.0 | 4.0 | 0.00 | 0.00 | 0.00 | 57 | 1008.8 |
| 20260507181705 | 83 | 165 | 1.0 | 4.0 | 0.00 | 0.00 | 0.00 | 57 | 1008.8 |
| 20260507181603 | 83 | 94 | 1.0 | 4.0 | 0.00 | 0.00 | 0.00 | 57 | 1008.8 |
| 20260507181506 | 83 | 85 | 1.0 | 4.0 | 0.00 | 0.00 | 0.00 | 57 | 1008.9 |
| 20260507181404 | 83 | 88 | 2.0 | 4.0 | 0.00 | 0.00 | 0.00 | 56 | 1008.8 |
| 20260507181304 | 83 | 73 | 2.0 | 4.0 | 0.00 | 0.00 | 0.00 | 56 | 1008.8 |
| 20260507181204 | 83 | 74 | 2.0 | 4.0 | 0.00 | 0.00 | 0.00 | 56 | 1008.8 |
| 20260507181105 | 83 | 96 | 1.0 | 4.0 | 0.00 | 0.00 | 0.00 | 56 | 1008.8 |
| 20260507180804 | 83 | 95 | 1.0 | 4.0 | 0.00 | 0.00 | 0.00 | 56 | 1008.8 |
| 20260507180603 | 84 | 80 | 2.0 | 4.0 | 0.00 | 0.00 | 0.00 | 55 | 1008.9 |
| 20260507180506 | 84 | 83 | 2.0 | 4.0 | 0.00 | 0.00 | 0.00 | 55 | 1008.8 |
| 20260507180404 | 84 | 59 | 1.0 | 4.0 | 0.00 | 0.00 | 0.00 | 55 | 1008.8 |
| 20260507180303 | 84 | 144 | 1.0 | 4.0 | 0.00 | 0.00 | 0.00 | 55 | 1008.9 |
| 20260507180105 | 84 | 69 | 2.0 | 9.0 | 0.00 | 0.00 | 0.00 | 55 | 1008.7 |
| 20260507180012 | 84 | 64 | 2.0 | 9.0 | 0.00 | 0.00 | 0.00 | 55 | 1008.8 |
| 20260507175906 | 84 | 123 | 2.0 | 9.0 | 0.00 | 0.00 | 0.00 | 55 | 1008.8 |
| 20260507175804 | 84 | 105 | 2.0 | 9.0 | 0.00 | 0.00 | 0.00 | 54 | 1008.8 |
| 20260507175704 | 84 | 105 | 1.0 | 9.0 | 0.00 | 0.00 | 0.00 | 54 | 1008.8 |
| 20260507175603 | 84 | 128 | 1.0 | 9.0 | 0.00 | 0.00 | 0.00 | 54 | 1008.9 |
| 20260507175506 | 84 | 122 | 3.0 | 9.0 | 0.00 | 0.00 | 0.00 | 54 | 1008.9 |
| 20260507175405 | 84 | 74 | 5.0 | 9.0 | 0.00 | 0.00 | 0.00 | 53 | 1008.9 |
| 20260507175203 | 84 | 123 | 4.0 | 8.0 | 0.00 | 0.00 | 0.00 | 53 | 1008.9 |
| 20260507175007 | 84 | 54 | 4.0 | 8.0 | 0.00 | 0.00 | 0.00 | 53 | 1008.9 |
| 20260507174904 | 84 | 151 | 4.0 | 8.0 | 0.00 | 0.00 | 0.00 | 53 | 1008.9 |
| 20260507174803 | 84 | 101 | 3.0 | 8.0 | 0.00 | 0.00 | 0.00 | 53 | 1008.9 |
| 20260507174703 | 85 | 138 | 2.0 | 7.0 | 0.00 | 0.00 | 0.00 | 54 | 1008.9 |
| 20260507174604 | 85 | 124 | 2.0 | 7.0 | 0.00 | 0.00 | 0.00 | 53 | 1008.9 |
| 20260507174507 | 85 | 126 | 2.0 | 7.0 | 0.00 | 0.00 | 0.00 | 53 | 1008.9 |
| 20260507174303 | 85 | 163 | 2.0 | 7.0 | 0.00 | 0.00 | 0.00 | 53 | 1008.9 |
| 20260507174104 | 85 | 117 | 1.0 | 6.0 | 0.00 | 0.00 | 0.00 | 53 | 1009.0 |
| 20260507174007 | 85 | 92 | 1.0 | 6.0 | 0.00 | 0.00 | 0.00 | 53 | 1008.9 |
| 20260507173804 | 85 | 92 | 2.0 | 8.0 | 0.00 | 0.00 | 0.00 | 52 | 1008.9 |
| 20260507173703 | 85 | 99 | 2.0 | 8.0 | 0.00 | 0.00 | 0.00 | 52 | 1008.9 |
| 20260507173604 | 85 | 116 | 2.0 | 8.0 | 0.00 | 0.00 | 0.00 | 52 | 1008.9 |
| 20260507173503 | 85 | 69 | 2.0 | 8.0 | 0.00 | 0.00 | 0.00 | 52 | 1008.9 |
| 20260507173204 | 85 | 107 | 4.0 | 9.0 | 0.00 | 0.00 | 0.00 | 52 | 1009.0 |
| 20260507173103 | 85 | 124 | 5.0 | 9.0 | 0.00 | 0.00 | 0.00 | 51 | 1008.9 |
| 20260507173015 | 85 | 122 | 5.0 | 9.0 | 0.00 | 0.00 | 0.00 | 51 | 1008.9 |
| 20260507172904 | 85 | 109 | 5.0 | 9.0 | 0.00 | 0.00 | 0.00 | 51 | 1009.0 |
| 20260507172804 | 85 | 109 | 4.0 | 9.0 | 0.00 | 0.00 | 0.00 | 51 | 1008.9 |
| 20260507172705 | 85 | 111 | 4.0 | 9.0 | 0.00 | 0.00 | 0.00 | 51 | 1008.9 |
| 20260507172603 | 85 | 122 | 5.0 | 9.0 | 0.00 | 0.00 | 0.00 | 51 | 1008.9 |
| 20260507172404 | 85 | 128 | 4.0 | 9.0 | 0.00 | 0.00 | 0.00 | 51 | 1008.9 |
| 20260507172205 | 85 | 143 | 4.0 | 9.0 | 0.00 | 0.00 | 0.00 | 51 | 1008.9 |
| 20260507172106 | 85 | 157 | 5.0 | 9.0 | 0.00 | 0.00 | 0.00 | 51 | 1008.8 |
| 20260507172009 | 85 | 147 | 4.0 | 10.0 | 0.00 | 0.00 | 0.00 | 51 | 1008.8 |
| 20260507171903 | 85 | 144 | 5.0 | 10.0 | 0.00 | 0.00 | 0.00 | 51 | 1008.9 |
| 20260507171808 | 85 | 168 | 5.0 | 10.0 | 0.00 | 0.00 | 0.00 | 51 | 1008.9 |
| 20260507171703 | 85 | 153 | 4.0 | 10.0 | 0.00 | 0.00 | 0.00 | 51 | 1008.9 |
| 20260507171605 | 85 | 144 | 5.0 | 10.0 | 0.00 | 0.00 | 0.00 | 51 | 1008.9 |
| 20260507171403 | 85 | 177 | 6.0 | 10.0 | 0.00 | 0.00 | 0.00 | 51 | 1009.0 |
| 20260507171303 | 85 | 112 | 6.0 | 10.0 | 0.00 | 0.00 | 0.00 | 51 | 1009.0 |
| 20260507171006 | 85 | 175 | 4.0 | 10.0 | 0.00 | 0.00 | 0.00 | 51 | 1008.9 |
| 20260507170805 | 85 | 167 | 5.0 | 10.0 | 0.00 | 0.00 | 0.00 | 51 | 1008.9 |
| 20260507170705 | 86 | 151 | 5.0 | 10.0 | 0.00 | 0.00 | 0.00 | 51 | 1008.9 |
| 20260507170605 | 86 | 180 | 5.0 | 10.0 | 0.00 | 0.00 | 0.00 | 51 | 1008.9 |
| 20260507170506 | 86 | 167 | 5.0 | 10.0 | 0.00 | 0.00 | 0.00 | 51 | 1009.0 |
| 20260507170405 | 85 | 160 | 6.0 | 10.0 | 0.00 | 0.00 | 0.00 | 51 | 1008.9 |
| 20260507170204 | 86 | 134 | 5.0 | 10.0 | 0.00 | 0.00 | 0.00 | 51 | 1009.0 |
| 20260507170105 | 86 | 172 | 6.0 | 10.0 | 0.00 | 0.00 | 0.00 | 51 | 1009.0 |
| 20260507170011 | 86 | 143 | 6.0 | 10.0 | 0.00 | 0.00 | 0.00 | 51 | 1009.0 |
| 20260507165803 | 86 | 142 | 4.0 | 9.0 | 0.00 | 0.00 | 0.00 | 51 | 1009.0 |
| 20260507165704 | 86 | 181 | 4.0 | 9.0 | 0.00 | 0.00 | 0.00 | 51 | 1009.0 |
| 20260507165604 | 86 | 152 | 5.0 | 9.0 | 0.00 | 0.00 | 0.00 | 51 | 1009.0 |
| 20260507165505 | 86 | 150 | 5.0 | 9.0 | 0.00 | 0.00 | 0.00 | 51 | 1009.0 |
| 20260507165404 | 86 | 155 | 6.0 | 9.0 | 0.00 | 0.00 | 0.00 | 51 | 1009.0 |
| 20260507165306 | 86 | 174 | 5.0 | 9.0 | 0.00 | 0.00 | 0.00 | 51 | 1009.0 |
| 20260507165204 | 86 | 136 | 3.0 | 8.0 | 0.00 | 0.00 | 0.00 | 51 | 1009.0 |
| 20260507165101 | 86 | 147 | 3.0 | 9.0 | 0.00 | 0.00 | 0.00 | 51 | 1009.0 |
| 20260507165009 | 86 | 169 | 3.0 | 9.0 | 0.00 | 0.00 | 0.00 | 51 | 1009.0 |
| 20260507164804 | 86 | 149 | 4.0 | 9.0 | 0.00 | 0.00 | 0.00 | 51 | 1009.0 |
| 20260507164703 | 86 | 146 | 4.0 | 9.0 | 0.00 | 0.00 | 0.00 | 51 | 1009.0 |
| 20260507164602 | 86 | 148 | 4.0 | 9.0 | 0.00 | 0.00 | 0.00 | 51 | 1008.9 |
| 20260507164504 | 86 | 132 | 4.0 | 9.0 | 0.00 | 0.00 | 0.00 | 50 | 1008.9 |
| 20260507164404 | 86 | 130 | 4.0 | 9.0 | 0.00 | 0.00 | 0.00 | 50 | 1008.9 |
| 20260507164301 | 86 | 130 | 4.0 | 13.0 | 0.00 | 0.00 | 0.00 | 50 | 1008.9 |
| 20260507164203 | 86 | 190 | 6.0 | 13.0 | 0.00 | 0.00 | 0.00 | 50 | 1008.9 |
| 20260507164104 | 86 | 150 | 6.0 | 13.0 | 0.00 | 0.00 | 0.00 | 50 | 1008.9 |
| 20260507164006 | 86 | 134 | 5.0 | 13.0 | 0.00 | 0.00 | 0.00 | 50 | 1008.9 |
| 20260507163903 | 86 | 142 | 6.0 | 13.0 | 0.00 | 0.00 | 0.00 | 50 | 1008.9 |
| 20260507163803 | 86 | 129 | 7.0 | 13.0 | 0.00 | 0.00 | 0.00 | 50 | 1008.9 |
| 20260507163703 | 86 | 128 | 5.0 | 13.0 | 0.00 | 0.00 | 0.00 | 50 | 1008.9 |
| 20260507163606 | 86 | 144 | 7.0 | 13.0 | 0.00 | 0.00 | 0.00 | 50 | 1008.9 |
| 20260507163505 | 86 | 111 | 10.0 | 13.0 | 0.00 | 0.00 | 0.00 | 50 | 1008.9 |
| 20260507163402 | 86 | 123 | 9.0 | 13.0 | 0.00 | 0.00 | 0.00 | 50 | 1009.0 |
| 20260507163203 | 86 | 144 | 9.0 | 12.0 | 0.00 | 0.00 | 0.00 | 49 | 1008.9 |
| 20260507163111 | 86 | 123 | 8.0 | 12.0 | 0.00 | 0.00 | 0.00 | 49 | 1009.0 |
| 20260507163006 | 86 | 140 | 6.0 | 12.0 | 0.00 | 0.00 | 0.00 | 49 | 1009.0 |
| 20260507162803 | 86 | 134 | 6.0 | 12.0 | 0.00 | 0.00 | 0.00 | 49 | 1008.9 |
| 20260507162704 | 87 | 163 | 8.0 | 12.0 | 0.00 | 0.00 | 0.00 | 49 | 1009.0 |
| 20260507162605 | 87 | 128 | 7.0 | 12.0 | 0.00 | 0.00 | 0.00 | 49 | 1008.9 |
| 20260507162505 | 87 | 132 | 6.0 | 11.0 | 0.00 | 0.00 | 0.00 | 48 | 1008.9 |
| 20260507162403 | 87 | 118 | 7.0 | 11.0 | 0.00 | 0.00 | 0.00 | 48 | 1008.9 |
| 20260507162306 | 87 | 130 | 6.0 | 11.0 | 0.00 | 0.00 | 0.00 | 48 | 1008.9 |
| 20260507162203 | 87 | 148 | 6.0 | 13.0 | 0.00 | 0.00 | 0.00 | 48 | 1009.0 |
| 20260507162102 | 87 | 123 | 7.0 | 13.0 | 0.00 | 0.00 | 0.00 | 48 | 1008.9 |
| 20260507162008 | 87 | 144 | 6.0 | 13.0 | 0.00 | 0.00 | 0.00 | 48 | 1008.9 |
| 20260507161902 | 87 | 137 | 6.0 | 13.0 | 0.00 | 0.00 | 0.00 | 48 | 1008.8 |
| 20260507161804 | 87 | 132 | 7.0 | 13.0 | 0.00 | 0.00 | 0.00 | 48 | 1009.0 |
| 20260507161704 | 87 | 136 | 7.0 | 13.0 | 0.00 | 0.00 | 0.00 | 48 | 1008.9 |
| 20260507161605 | 87 | 135 | 8.0 | 13.0 | 0.00 | 0.00 | 0.00 | 48 | 1008.9 |
| 20260507161505 | 87 | 151 | 8.0 | 14.0 | 0.00 | 0.00 | 0.00 | 48 | 1008.9 |
| 20260507161304 | 87 | 151 | 7.0 | 14.0 | 0.00 | 0.00 | 0.00 | 47 | 1008.9 |
| 20260507161203 | 87 | 120 | 6.0 | 14.0 | 0.00 | 0.00 | 0.00 | 47 | 1008.9 |
| 20260507161103 | 87 | 130 | 6.0 | 14.0 | 0.00 | 0.00 | 0.00 | 47 | 1008.9 |
| 20260507161018 | 87 | 134 | 8.0 | 14.0 | 0.00 | 0.00 | 0.00 | 47 | 1008.9 |
| 20260507160902 | 87 | 159 | 8.0 | 14.0 | 0.00 | 0.00 | 0.00 | 47 | 1008.9 |
| 20260507160805 | 87 | 143 | 8.0 | 14.0 | 0.00 | 0.00 | 0.00 | 47 | 1008.9 |
| 20260507160505 | 87 | 143 | 6.0 | 11.0 | 0.00 | 0.00 | 0.00 | 46 | 1008.8 |
| 20260507160303 | 88 | 142 | 9.0 | 11.0 | 0.00 | 0.00 | 0.00 | 46 | 1008.9 |
| 20260507160204 | 88 | 137 | 8.0 | 11.0 | 0.00 | 0.00 | 0.00 | 46 | 1008.8 |
| 20260507160104 | 88 | 145 | 7.0 | 12.0 | 0.00 | 0.00 | 0.00 | 46 | 1008.8 |
| 20260507155902 | 88 | 127 | 5.0 | 12.0 | 0.00 | 0.00 | 0.00 | 46 | 1008.8 |
| 20260507155803 | 88 | 117 | 6.0 | 12.0 | 0.00 | 0.00 | 0.00 | 45 | 1008.8 |
| 20260507155703 | 88 | 132 | 7.0 | 12.0 | 0.00 | 0.00 | 0.00 | 45 | 1008.8 |
| 20260507155604 | 88 | 130 | 8.0 | 12.0 | 0.00 | 0.00 | 0.00 | 45 | 1008.8 |
| 20260507155508 | 88 | 147 | 6.0 | 12.0 | 0.00 | 0.00 | 0.00 | 45 | 1008.7 |
| 20260507155404 | 88 | 123 | 7.0 | 12.0 | 0.00 | 0.00 | 0.00 | 45 | 1008.7 |
| 20260507155306 | 88 | 143 | 10.0 | 12.0 | 0.00 | 0.00 | 0.00 | 44 | 1008.7 |
| 20260507155203 | 88 | 112 | 9.0 | 12.0 | 0.00 | 0.00 | 0.00 | 44 | 1008.6 |
| 20260507155104 | 88 | 143 | 8.0 | 12.0 | 0.00 | 0.00 | 0.00 | 44 | 1008.6 |
| 20260507155009 | 88 | 142 | 7.0 | 12.0 | 0.00 | 0.00 | 0.00 | 44 | 1008.7 |
| 20260507154902 | 88 | 136 | 6.0 | 12.0 | 0.00 | 0.00 | 0.00 | 44 | 1008.6 |
| 20260507154804 | 88 | 157 | 7.0 | 11.0 | 0.00 | 0.00 | 0.00 | 44 | 1008.6 |
| 20260507154603 | 89 | 140 | 7.0 | 11.0 | 0.00 | 0.00 | 0.00 | 43 | 1008.5 |
| 20260507154505 | 89 | 138 | 6.0 | 11.0 | 0.00 | 0.00 | 0.00 | 43 | 1008.6 |
| 20260507154403 | 89 | 139 | 4.0 | 8.0 | 0.00 | 0.00 | 0.00 | 43 | 1008.5 |
| 20260507154302 | 89 | 125 | 3.0 | 7.0 | 0.00 | 0.00 | 0.00 | 43 | 1008.5 |
| 20260507154205 | 89 | 136 | 3.0 | 7.0 | 0.00 | 0.00 | 0.00 | 42 | 1008.4 |
| 20260507154103 | 89 | 121 | 3.0 | 8.0 | 0.00 | 0.00 | 0.00 | 42 | 1008.5 |
| 20260507154009 | 89 | 143 | 3.0 | 8.0 | 0.00 | 0.00 | 0.00 | 42 | 1008.4 |
| 20260507153702 | 89 | 169 | 3.0 | 8.0 | 0.00 | 0.00 | 0.00 | 42 | 1008.4 |
| 20260507153602 | 89 | 126 | 3.0 | 8.0 | 0.00 | 0.00 | 0.00 | 42 | 1008.4 |
| 20260507153505 | 89 | 127 | 3.0 | 8.0 | 0.00 | 0.00 | 0.00 | 42 | 1008.3 |
| 20260507153403 | 89 | 179 | 4.0 | 8.0 | 0.00 | 0.00 | 0.00 | 42 | 1008.4 |
| 20260507153303 | 89 | 146 | 4.0 | 8.0 | 0.00 | 0.00 | 0.00 | 42 | 1008.3 |
| 20260507153103 | 89 | 147 | 3.0 | 8.0 | 0.00 | 0.00 | 0.00 | 42 | 1008.3 |
| 20260507153007 | 89 | 128 | 3.0 | 8.0 | 0.00 | 0.00 | 0.00 | 42 | 1008.3 |
| 20260507152902 | 89 | 143 | 3.0 | 8.0 | 0.00 | 0.00 | 0.00 | 42 | 1008.3 |
| 20260507152803 | 89 | 175 | 3.0 | 8.0 | 0.00 | 0.00 | 0.00 | 41 | 1008.3 |
| 20260507152702 | 89 | 161 | 4.0 | 8.0 | 0.00 | 0.00 | 0.00 | 41 | 1008.4 |
| 20260507152602 | 89 | 140 | 3.0 | 8.0 | 0.00 | 0.00 | 0.00 | 41 | 1008.2 |
| 20260507152504 | 89 | 126 | 3.0 | 8.0 | 0.00 | 0.00 | 0.00 | 41 | 1008.3 |
| 20260507152403 | 89 | 172 | 4.0 | 8.0 | 0.00 | 0.00 | 0.00 | 41 | 1008.3 |
| 20260507152306 | 89 | 127 | 5.0 | 8.0 | 0.00 | 0.00 | 0.00 | 41 | 1008.2 |
| 20260507152202 | 89 | 139 | 6.0 | 8.0 | 0.00 | 0.00 | 0.00 | 41 | 1008.2 |
| 20260507152103 | 89 | 109 | 6.0 | 8.0 | 0.00 | 0.00 | 0.00 | 41 | 1008.1 |
| 20260507151902 | 89 | 130 | 5.0 | 8.0 | 0.00 | 0.00 | 0.00 | 41 | 1008.2 |
| 20260507151804 | 89 | 132 | 5.0 | 8.0 | 0.00 | 0.00 | 0.00 | 41 | 1008.2 |
| 20260507151705 | 89 | 130 | 5.0 | 8.0 | 0.00 | 0.00 | 0.00 | 41 | 1008.2 |
| 20260507151603 | 89 | 152 | 5.0 | 8.0 | 0.00 | 0.00 | 0.00 | 41 | 1008.2 |
| 20260507151506 | 89 | 134 | 4.0 | 8.0 | 0.00 | 0.00 | 0.00 | 41 | 1008.1 |
| 20260507151403 | 89 | 129 | 5.0 | 8.0 | 0.00 | 0.00 | 0.00 | 41 | 1008.1 |
| 20260507151203 | 89 | 135 | 4.0 | 7.0 | 0.00 | 0.00 | 0.00 | 41 | 1008.1 |
| 20260507151104 | 89 | 134 | 3.0 | 7.0 | 0.00 | 0.00 | 0.00 | 41 | 1008.1 |
| 20260507151007 | 89 | 116 | 3.0 | 7.0 | 0.00 | 0.00 | 0.00 | 41 | 1008.1 |
| 20260507150803 | 89 | 171 | 3.0 | 6.0 | 0.00 | 0.00 | 0.00 | 41 | 1008.1 |
| 20260507150703 | 89 | 138 | 2.0 | 6.0 | 0.00 | 0.00 | 0.00 | 41 | 1008.0 |
| 20260507150603 | 89 | 132 | 2.0 | 6.0 | 0.00 | 0.00 | 0.00 | 41 | 1008.0 |
| 20260507150504 | 89 | 128 | 2.0 | 8.0 | 0.00 | 0.00 | 0.00 | 41 | 1008.0 |
| 20260507150404 | 90 | 142 | 2.0 | 8.0 | 0.00 | 0.00 | 0.00 | 41 | 1008.1 |
| 20260507150303 | 90 | 123 | 3.0 | 8.0 | 0.00 | 0.00 | 0.00 | 41 | 1008.0 |
| 20260507150203 | 90 | 126 | 3.0 | 8.0 | 0.00 | 0.00 | 0.00 | 41 | 1008.0 |
| 20260507150104 | 90 | 165 | 2.0 | 8.0 | 0.00 | 0.00 | 0.00 | 41 | 1008.0 |
| 20260507150007 | 90 | 136 | 2.0 | 8.0 | 0.00 | 0.00 | 0.00 | 41 | 1007.9 |
| 20260507145803 | 90 | 117 | 4.0 | 8.0 | 0.00 | 0.00 | 0.00 | 41 | 1007.9 |
| 20260507145703 | 90 | 163 | 4.0 | 8.0 | 0.00 | 0.00 | 0.00 | 41 | 1007.9 |
| 20260507145603 | 90 | 114 | 3.0 | 8.0 | 0.00 | 0.00 | 0.00 | 41 | 1007.9 |
| 20260507145504 | 90 | 169 | 3.0 | 8.0 | 0.00 | 0.00 | 0.00 | 41 | 1007.8 |
| 20260507145402 | 90 | 88 | 3.0 | 8.0 | 0.00 | 0.00 | 0.00 | 41 | 1007.8 |
| 20260507145306 | 90 | 116 | 2.0 | 8.0 | 0.00 | 0.00 | 0.00 | 41 | 1007.8 |
| 20260507145202 | 90 | 164 | 2.0 | 8.0 | 0.00 | 0.00 | 0.00 | 41 | 1007.8 |
| 20260507145101 | 90 | 122 | 4.0 | 8.0 | 0.00 | 0.00 | 0.00 | 41 | 1007.8 |
| 20260507145006 | 90 | 138 | 4.0 | 8.0 | 0.00 | 0.00 | 0.00 | 41 | 1007.7 |
| 20260507144803 | 90 | 169 | 2.0 | 7.0 | 0.00 | 0.00 | 0.00 | 41 | 1007.8 |
| 20260507144702 | 90 | 154 | 2.0 | 7.0 | 0.00 | 0.00 | 0.00 | 41 | 1007.8 |
| 20260507144602 | 90 | 126 | 2.0 | 7.0 | 0.00 | 0.00 | 0.00 | 41 | 1007.7 |
| 20260507144403 | 90 | 144 | 4.0 | 7.0 | 0.00 | 0.00 | 0.00 | 40 | 1007.7 |
| 20260507144304 | 90 | 136 | 4.0 | 9.0 | 0.00 | 0.00 | 0.00 | 40 | 1007.7 |
| 20260507144203 | 90 | 146 | 4.0 | 9.0 | 0.00 | 0.00 | 0.00 | 40 | 1007.7 |
| 20260507144104 | 90 | 134 | 4.0 | 9.0 | 0.00 | 0.00 | 0.00 | 40 | 1007.6 |
| 20260507144006 | 90 | 121 | 3.0 | 9.0 | 0.00 | 0.00 | 0.00 | 40 | 1007.7 |
| 20260507143903 | 90 | 130 | 4.0 | 9.0 | 0.00 | 0.00 | 0.00 | 40 | 1007.7 |
| 20260507143801 | 90 | 146 | 5.0 | 9.0 | 0.00 | 0.00 | 0.00 | 40 | 1007.6 |
| 20260507143702 | 90 | 144 | 5.0 | 9.0 | 0.00 | 0.00 | 0.00 | 40 | 1007.7 |
| 20260507143603 | 90 | 142 | 5.0 | 9.0 | 0.00 | 0.00 | 0.00 | 40 | 1007.6 |
| 20260507143505 | 90 | 119 | 4.0 | 8.0 | 0.00 | 0.00 | 0.00 | 41 | 1007.7 |
| 20260507143404 | 90 | 147 | 3.0 | 7.0 | 0.00 | 0.00 | 0.00 | 41 | 1007.7 |
| 20260507143303 | 90 | 125 | 2.0 | 7.0 | 0.00 | 0.00 | 0.00 | 41 | 1007.6 |
| 20260507143204 | 90 | 82 | 2.0 | 7.0 | 0.00 | 0.00 | 0.00 | 41 | 1007.6 |
| 20260507143103 | 90 | 153 | 1.0 | 7.0 | 0.00 | 0.00 | 0.00 | 41 | 1007.6 |
| 20260507143007 | 90 | 88 | 0.0 | 7.0 | 0.00 | 0.00 | 0.00 | 41 | 1007.6 |
| 20260507142902 | 90 | 136 | 1.0 | 7.0 | 0.00 | 0.00 | 0.00 | 41 | 1007.6 |
| 20260507142703 | 90 | 105 | 3.0 | 7.0 | 0.00 | 0.00 | 0.00 | 41 | 1007.6 |
| 20260507142602 | 90 | 109 | 3.0 | 9.0 | 0.00 | 0.00 | 0.00 | 40 | 1007.6 |
| 20260507142506 | 90 | 96 | 3.0 | 9.0 | 0.00 | 0.00 | 0.00 | 40 | 1007.6 |
| 20260507142306 | 90 | 148 | 2.0 | 9.0 | 0.00 | 0.00 | 0.00 | 40 | 1007.6 |
| 20260507142202 | 90 | 90 | 2.0 | 9.0 | 0.00 | 0.00 | 0.00 | 40 | 1007.5 |
| 20260507142103 | 90 | 77 | 2.0 | 9.0 | 0.00 | 0.00 | 0.00 | 40 | 1007.5 |
| 20260507141902 | 90 | 120 | 4.0 | 9.0 | 0.00 | 0.00 | 0.00 | 39 | 1007.5 |
| 20260507141803 | 90 | 126 | 4.0 | 9.0 | 0.00 | 0.00 | 0.00 | 40 | 1007.4 |
| 20260507141703 | 90 | 126 | 4.0 | 9.0 | 0.00 | 0.00 | 0.00 | 40 | 1007.5 |
| 20260507141603 | 90 | 132 | 5.0 | 9.0 | 0.00 | 0.00 | 0.00 | 40 | 1007.4 |
| 20260507141506 | 90 | 107 | 6.0 | 9.0 | 0.00 | 0.00 | 0.00 | 40 | 1007.4 |
| 20260507141402 | 90 | 130 | 5.0 | 9.0 | 0.00 | 0.00 | 0.00 | 40 | 1007.2 |
| 20260507141303 | 90 | 134 | 3.0 | 8.0 | 0.00 | 0.00 | 0.00 | 40 | 1007.2 |
| 20260507141202 | 90 | 130 | 2.0 | 8.0 | 0.00 | 0.00 | 0.00 | 41 | 1007.3 |
| 20260507141102 | 91 | 132 | 2.0 | 8.0 | 0.00 | 0.00 | 0.00 | 40 | 1007.2 |
| 20260507141007 | 91 | 119 | 3.0 | 8.0 | 0.00 | 0.00 | 0.00 | 40 | 1007.2 |
| 20260507140903 | 91 | 139 | 3.0 | 8.0 | 0.00 | 0.00 | 0.00 | 40 | 1007.1 |
| 20260507140802 | 91 | 132 | 3.0 | 8.0 | 0.00 | 0.00 | 0.00 | 40 | 1007.2 |
| 20260507140701 | 91 | 126 | 4.0 | 8.0 | 0.00 | 0.00 | 0.00 | 40 | 1007.2 |
| 20260507140604 | 91 | 128 | 5.0 | 8.0 | 0.00 | 0.00 | 0.00 | 40 | 1007.3 |
| 20260507140504 | 91 | 106 | 3.0 | 8.0 | 0.00 | 0.00 | 0.00 | 40 | 1007.3 |
| 20260507140406 | 91 | 94 | 1.0 | 4.0 | 0.00 | 0.00 | 0.00 | 40 | 1007.3 |
| 20260507140303 | 91 | 58 | 2.0 | 4.0 | 0.00 | 0.00 | 0.00 | 40 | 1007.3 |
| 20260507140204 | 91 | 59 | 2.0 | 4.0 | 0.00 | 0.00 | 0.00 | 40 | 1007.3 |
| 20260507140008 | 91 | 94 | 2.0 | 6.0 | 0.00 | 0.00 | 0.00 | 40 | 1007.1 |
| 20260507135903 | 91 | 87 | 2.0 | 6.0 | 0.00 | 0.00 | 0.00 | 40 | 1007.2 |
| 20260507135804 | 91 | 82 | 2.0 | 6.0 | 0.00 | 0.00 | 0.00 | 40 | 1007.2 |
| 20260507135702 | 91 | 114 | 2.0 | 6.0 | 0.00 | 0.00 | 0.00 | 40 | 1007.1 |
| 20260507135606 | 91 | 77 | 2.0 | 6.0 | 0.00 | 0.00 | 0.00 | 40 | 1007.2 |
| 20260507135506 | 91 | 61 | 2.0 | 6.0 | 0.00 | 0.00 | 0.00 | 40 | 1007.2 |
| 20260507135403 | 91 | 114 | 3.0 | 6.0 | 0.00 | 0.00 | 0.00 | 40 | 1007.2 |
| 20260507135202 | 91 | 90 | 2.0 | 6.0 | 0.00 | 0.00 | 0.00 | 40 | 1007.1 |
| 20260507135103 | 91 | 103 | 3.0 | 6.0 | 0.00 | 0.00 | 0.00 | 40 | 1007.1 |
| 20260507135006 | 91 | 123 | 3.0 | 6.0 | 0.00 | 0.00 | 0.00 | 40 | 1007.2 |
| 20260507134902 | 91 | 138 | 3.0 | 6.0 | 0.00 | 0.00 | 0.00 | 40 | 1007.1 |
| 20260507134802 | 91 | 100 | 2.0 | 6.0 | 0.00 | 0.00 | 0.00 | 40 | 1007.1 |
| 20260507134701 | 91 | 88 | 2.0 | 4.0 | 0.00 | 0.00 | 0.00 | 40 | 1007.1 |
| 20260507134610 | 91 | 115 | 3.0 | 4.0 | 0.00 | 0.00 | 0.00 | 40 | 1007.1 |
| 20260507134505 | 91 | 103 | 2.0 | 4.0 | 0.00 | 0.00 | 0.00 | 40 | 1007.2 |
| 20260507134303 | 91 | 117 | 1.0 | 4.0 | 0.00 | 0.00 | 0.00 | 40 | 1007.2 |
| 20260507134202 | 91 | 88 | 2.0 | 4.0 | 0.00 | 0.00 | 0.00 | 40 | 1007.3 |
| 20260507134104 | 91 | 105 | 2.0 | 4.0 | 0.00 | 0.00 | 0.00 | 40 | 1007.3 |
| 20260507134007 | 91 | 103 | 2.0 | 4.0 | 0.00 | 0.00 | 0.00 | 40 | 1007.3 |
| 20260507133903 | 91 | 80 | 2.0 | 4.0 | 0.00 | 0.00 | 0.00 | 40 | 1007.3 |
| 20260507133802 | 91 | 119 | 2.0 | 3.0 | 0.00 | 0.00 | 0.00 | 40 | 1007.2 |
| 20260507133702 | 91 | 113 | 1.0 | 3.0 | 0.00 | 0.00 | 0.00 | 40 | 1007.2 |
| 20260507133609 | 92 | 103 | 0.0 | 4.0 | 0.00 | 0.00 | 0.00 | 40 | 1007.2 |
| 20260507133505 | 92 | 127 | 0.0 | 4.0 | 0.00 | 0.00 | 0.00 | 40 | 1007.2 |
| 20260507133408 | 92 | 173 | 1.0 | 4.0 | 0.00 | 0.00 | 0.00 | 39 | 1007.3 |
| 20260507133308 | 91 | 135 | 1.0 | 4.0 | 0.00 | 0.00 | 0.00 | 40 | 1007.2 |
| 20260507133203 | 92 | 97 | 1.0 | 4.0 | 0.00 | 0.00 | 0.00 | 39 | 1007.2 |
| 20260507133104 | 92 | 142 | 2.0 | 4.0 | 0.00 | 0.00 | 0.00 | 39 | 1007.3 |
| 20260507133007 | 92 | 86 | 2.0 | 4.0 | 0.00 | 0.00 | 0.00 | 39 | 1007.2 |
| 20260507132802 | 92 | 136 | 2.0 | 4.0 | 0.00 | 0.00 | 0.00 | 39 | 1007.1 |
| 20260507132703 | 92 | 109 | 1.0 | 4.0 | 0.00 | 0.00 | 0.00 | 39 | 1007.1 |
| 20260507132605 | 92 | 111 | 2.0 | 4.0 | 0.00 | 0.00 | 0.00 | 39 | 1007.1 |
| 20260507132504 | 92 | 104 | 1.0 | 4.0 | 0.00 | 0.00 | 0.00 | 39 | 1007.0 |
| 20260507132403 | 92 | 118 | 2.0 | 4.0 | 0.00 | 0.00 | 0.00 | 39 | 1007.1 |
| 20260507132306 | 92 | 83 | 2.0 | 4.0 | 0.00 | 0.00 | 0.00 | 39 | 1007.1 |
| 20260507132203 | 92 | 110 | 2.0 | 4.0 | 0.00 | 0.00 | 0.00 | 39 | 1007.1 |
| 20260507132104 | 92 | 150 | 2.0 | 4.0 | 0.00 | 0.00 | 0.00 | 39 | 1007.1 |
| 20260507132007 | 92 | 98 | 2.0 | 4.0 | 0.00 | 0.00 | 0.00 | 39 | 1007.1 |
| 20260507131901 | 92 | 17 | 2.0 | 6.0 | 0.00 | 0.00 | 0.00 | 39 | 1007.2 |
| 20260507131803 | 92 | 140 | 2.0 | 6.0 | 0.00 | 0.00 | 0.00 | 39 | 1007.2 |
| 20260507131703 | 92 | 78 | 2.0 | 6.0 | 0.00 | 0.00 | 0.00 | 39 | 1007.2 |
| 20260507131506 | 92 | 66 | 2.0 | 6.0 | 0.00 | 0.00 | 0.00 | 39 | 1007.2 |
| 20260507131403 | 92 | 86 | 2.0 | 7.0 | 0.00 | 0.00 | 0.00 | 39 | 1007.3 |
| 20260507131303 | 92 | 84 | 2.0 | 7.0 | 0.00 | 0.00 | 0.00 | 39 | 1007.2 |
| 20260507131204 | 92 | 112 | 3.0 | 7.0 | 0.00 | 0.00 | 0.00 | 39 | 1007.2 |
| 20260507131104 | 92 | 115 | 3.0 | 7.0 | 0.00 | 0.00 | 0.00 | 38 | 1007.1 |
| 20260507130902 | 92 | 81 | 3.0 | 7.0 | 0.00 | 0.00 | 0.00 | 38 | 1007.1 |
| 20260507130802 | 92 | 123 | 3.0 | 7.0 | 0.00 | 0.00 | 0.00 | 38 | 1007.1 |
| 20260507130702 | 92 | 82 | 4.0 | 7.0 | 0.00 | 0.00 | 0.00 | 38 | 1007.1 |
| 20260507130605 | 92 | 113 | 3.0 | 7.0 | 0.00 | 0.00 | 0.00 | 38 | 1007.0 |
| 20260507130505 | 92 | 86 | 2.0 | 7.0 | 0.00 | 0.00 | 0.00 | 38 | 1007.1 |
| 20260507130404 | 92 | 79 | 2.0 | 7.0 | 0.00 | 0.00 | 0.00 | 38 | 1007.1 |
| 20260507130304 | 92 | 90 | 2.0 | 7.0 | 0.00 | 0.00 | 0.00 | 38 | 1007.1 |
| 20260507130203 | 92 | 109 | 3.0 | 7.0 | 0.00 | 0.00 | 0.00 | 38 | 1007.1 |
| 20260507130007 | 92 | 101 | 3.0 | 7.0 | 0.00 | 0.00 | 0.00 | 39 | 1007.0 |
| 20260507125903 | 92 | 101 | 3.0 | 7.0 | 0.00 | 0.00 | 0.00 | 38 | 1007.0 |
| 20260507125704 | 92 | 104 | 4.0 | 7.0 | 0.00 | 0.00 | 0.00 | 39 | 1007.0 |
| 20260507125604 | 92 | 145 | 3.0 | 5.0 | 0.00 | 0.00 | 0.00 | 39 | 1007.0 |
| 20260507125506 | 92 | 150 | 3.0 | 5.0 | 0.00 | 0.00 | 0.00 | 39 | 1007.1 |
| 20260507125403 | 92 | 148 | 2.0 | 5.0 | 0.00 | 0.00 | 0.00 | 38 | 1007.1 |
| 20260507125202 | 92 | 103 | 2.0 | 4.0 | 0.00 | 0.00 | 0.00 | 39 | 1007.0 |
| 20260507125102 | 92 | 49 | 3.0 | 4.0 | 0.00 | 0.00 | 0.00 | 39 | 1007.1 |
| 20260507124902 | 92 | 122 | 2.0 | 4.0 | 0.00 | 0.00 | 0.00 | 39 | 1007.2 |
| 20260507124806 | 92 | 99 | 2.0 | 4.0 | 0.00 | 0.00 | 0.00 | 39 | 1007.2 |
| 20260507124703 | 92 | 73 | 2.0 | 5.0 | 0.00 | 0.00 | 0.00 | 39 | 1007.2 |
| 20260507124506 | 92 | 118 | 2.0 | 5.0 | 0.00 | 0.00 | 0.00 | 38 | 1007.3 |
| 20260507124404 | 92 | 77 | 2.0 | 7.0 | 0.00 | 0.00 | 0.00 | 39 | 1007.3 |
| 20260507124308 | 92 | 113 | 1.0 | 7.0 | 0.00 | 0.00 | 0.00 | 39 | 1007.3 |
| 20260507124214 | 92 | 115 | 1.0 | 7.0 | 0.00 | 0.00 | 0.00 | 38 | 1007.3 |
| 20260507124006 | 92 | 63 | 2.0 | 7.0 | 0.00 | 0.00 | 0.00 | 38 | 1007.2 |
| 20260507123907 | 92 | 117 | 2.0 | 7.0 | 0.00 | 0.00 | 0.00 | 38 | 1007.2 |
| 20260507123802 | 93 | 100 | 2.0 | 7.0 | 0.00 | 0.00 | 0.00 | 38 | 1007.1 |
| 20260507123704 | 93 | 115 | 4.0 | 7.0 | 0.00 | 0.00 | 0.00 | 38 | 1007.2 |
| 20260507123506 | 93 | 53 | 3.0 | 6.0 | 0.00 | 0.00 | 0.00 | 39 | 1007.2 |
| 20260507123406 | 93 | 61 | 3.0 | 6.0 | 0.00 | 0.00 | 0.00 | 38 | 1007.1 |
| 20260507123303 | 93 | 77 | 3.0 | 7.0 | 0.00 | 0.00 | 0.00 | 38 | 1007.1 |
| 20260507123203 | 93 | 80 | 2.0 | 6.0 | 0.00 | 0.00 | 0.00 | 38 | 1007.1 |
| 20260507123105 | 93 | 70 | 3.0 | 6.0 | 0.00 | 0.00 | 0.00 | 38 | 1007.0 |
| 20260507123007 | 93 | 115 | 3.0 | 6.0 | 0.00 | 0.00 | 0.00 | 38 | 1007.1 |
| 20260507122903 | 93 | 95 | 2.0 | 4.0 | 0.00 | 0.00 | 0.00 | 38 | 1007.1 |
| 20260507122802 | 93 | 74 | 2.0 | 4.0 | 0.00 | 0.00 | 0.00 | 38 | 1007.1 |
| 20260507122702 | 93 | 131 | 1.0 | 4.0 | 0.00 | 0.00 | 0.00 | 38 | 1007.2 |
| 20260507122604 | 93 | 81 | 1.0 | 4.0 | 0.00 | 0.00 | 0.00 | 39 | 1007.1 |
| 20260507122505 | 93 | 117 | 2.0 | 4.0 | 0.00 | 0.00 | 0.00 | 38 | 1007.1 |
| 20260507122402 | 93 | 79 | 2.0 | 5.0 | 0.00 | 0.00 | 0.00 | 38 | 1007.2 |
| 20260507122307 | 93 | 86 | 2.0 | 5.0 | 0.00 | 0.00 | 0.00 | 38 | 1007.2 |
| 20260507122203 | 93 | 111 | 2.0 | 5.0 | 0.00 | 0.00 | 0.00 | 38 | 1007.2 |
| 20260507122103 | 93 | 152 | 2.0 | 5.0 | 0.00 | 0.00 | 0.00 | 38 | 1007.2 |
| 20260507122012 | 93 | 71 | 2.0 | 5.0 | 0.00 | 0.00 | 0.00 | 38 | 1007.3 |
| 20260507121803 | 93 | 74 | 2.0 | 5.0 | 0.00 | 0.00 | 0.00 | 38 | 1007.2 |
| 20260507121702 | 93 | 27 | 3.0 | 5.0 | 0.00 | 0.00 | 0.00 | 38 | 1007.2 |
| 20260507121504 | 93 | 66 | 3.0 | 5.0 | 0.00 | 0.00 | 0.00 | 38 | 1007.1 |
| 20260507121403 | 93 | 108 | 2.0 | 5.0 | 0.00 | 0.00 | 0.00 | 38 | 1007.2 |
| 20260507121303 | 93 | 88 | 3.0 | 6.0 | 0.00 | 0.00 | 0.00 | 38 | 1007.2 |
| 20260507121203 | 93 | 360 | 3.0 | 6.0 | 0.00 | 0.00 | 0.00 | 38 | 1007.2 |
| 20260507120902 | 93 | 85 | 2.0 | 6.0 | 0.00 | 0.00 | 0.00 | 37 | 1007.2 |
| 20260507120806 | 93 | 100 | 2.0 | 6.0 | 0.00 | 0.00 | 0.00 | 37 | 1007.2 |
| 20260507120703 | 93 | 112 | 3.0 | 6.0 | 0.00 | 0.00 | 0.00 | 37 | 1007.2 |
| 20260507120605 | 93 | 41 | 4.0 | 6.0 | 0.00 | 0.00 | 0.00 | 37 | 1007.2 |
| 20260507120505 | 93 | 70 | 5.0 | 6.0 | 0.00 | 0.00 | 0.00 | 37 | 1007.1 |
| 20260507120306 | 93 | 88 | 3.0 | 6.0 | 0.00 | 0.00 | 0.00 | 37 | 1007.1 |
| 20260507120205 | 93 | 52 | 3.0 | 6.0 | 0.00 | 0.00 | 0.00 | 37 | 1007.1 |
| 20260507120008 | 93 | 109 | 4.0 | 6.0 | 0.00 | 0.00 | 0.00 | 36 | 1007.1 |
| 20260507115903 | 93 | 136 | 3.0 | 5.0 | 0.00 | 0.00 | 0.00 | 36 | 1007.0 |
| 20260507115805 | 93 | 139 | 2.0 | 11.0 | 0.00 | 0.00 | 0.00 | 37 | 1007.0 |
| 20260507115702 | 93 | 107 | 2.0 | 11.0 | 0.00 | 0.00 | 0.00 | 37 | 1007.0 |
| 20260507115602 | 93 | 87 | 3.0 | 11.0 | 0.00 | 0.00 | 0.00 | 36 | 1007.0 |
| 20260507115506 | 93 | 86 | 2.0 | 11.0 | 0.00 | 0.00 | 0.00 | 36 | 1007.0 |
| 20260507115402 | 93 | 14 | 1.0 | 11.0 | 0.00 | 0.00 | 0.00 | 36 | 1007.0 |
| 20260507115306 | 93 | 81 | 1.0 | 11.0 | 0.00 | 0.00 | 0.00 | 36 | 1006.9 |
| 20260507115204 | 93 | 84 | 4.0 | 11.0 | 0.00 | 0.00 | 0.00 | 37 | 1006.9 |
| 20260507115102 | 93 | 117 | 7.0 | 11.0 | 0.00 | 0.00 | 0.00 | 36 | 1006.9 |
| 20260507115006 | 94 | 105 | 7.0 | 11.0 | 0.00 | 0.00 | 0.00 | 36 | 1006.9 |
| 20260507114903 | 94 | 136 | 4.0 | 10.0 | 0.00 | 0.00 | 0.00 | 36 | 1007.0 |
| 20260507114806 | 94 | 171 | 3.0 | 7.0 | 0.00 | 0.00 | 0.00 | 37 | 1006.9 |
| 20260507114706 | 94 | 232 | 2.0 | 4.0 | 0.00 | 0.00 | 0.00 | 37 | 1006.9 |
| 20260507114603 | 94 | 215 | 2.0 | 4.0 | 0.00 | 0.00 | 0.00 | 37 | 1007.0 |
| 20260507114505 | 94 | 262 | 1.0 | 4.0 | 0.00 | 0.00 | 0.00 | 37 | 1007.0 |
| 20260507114403 | 94 | 262 | 1.0 | 4.0 | 0.00 | 0.00 | 0.00 | 37 | 1006.9 |
| 20260507114303 | 94 | 283 | 1.0 | 4.0 | 0.00 | 0.00 | 0.00 | 37 | 1006.9 |
| 20260507114204 | 94 | 242 | 2.0 | 4.0 | 0.00 | 0.00 | 0.00 | 36 | 1006.9 |
| 20260507114103 | 94 | 256 | 2.0 | 4.0 | 0.00 | 0.00 | 0.00 | 37 | 1006.9 |
| 20260507114006 | 94 | 250 | 2.0 | 5.0 | 0.00 | 0.00 | 0.00 | 36 | 1006.9 |
| 20260507113803 | 94 | 252 | 0.0 | 5.0 | 0.00 | 0.00 | 0.00 | 36 | 1006.9 |
| 20260507113703 | 94 | 255 | 1.0 | 5.0 | 0.00 | 0.00 | 0.00 | 36 | 1006.9 |
| 20260507113604 | 94 | 200 | 1.0 | 5.0 | 0.00 | 0.00 | 0.00 | 36 | 1006.9 |
| 20260507113504 | 94 | 235 | 1.0 | 5.0 | 0.00 | 0.00 | 0.00 | 36 | 1007.0 |
| 20260507113405 | 94 | 221 | 1.0 | 5.0 | 0.00 | 0.00 | 0.00 | 37 | 1006.9 |
| 20260507113302 | 94 | 257 | 3.0 | 5.0 | 0.00 | 0.00 | 0.00 | 36 | 1006.9 |
| 20260507113203 | 94 | 168 | 3.0 | 5.0 | 0.00 | 0.00 | 0.00 | 36 | 1006.9 |
| 20260507113104 | 94 | 200 | 3.0 | 5.0 | 0.00 | 0.00 | 0.00 | 36 | 1006.9 |
| 20260507113006 | 94 | 200 | 3.0 | 4.0 | 0.00 | 0.00 | 0.00 | 36 | 1006.9 |
| 20260507112706 | 94 | 189 | 3.0 | 4.0 | 0.00 | 0.00 | 0.00 | 36 | 1006.9 |
| 20260507112604 | 94 | 265 | 1.0 | 5.0 | 0.00 | 0.00 | 0.00 | 36 | 1007.0 |
| 20260507112505 | 94 | 298 | 1.0 | 5.0 | 0.00 | 0.00 | 0.00 | 35 | 1007.0 |
| 20260507112306 | 94 | 296 | 2.0 | 5.0 | 0.00 | 0.00 | 0.00 | 36 | 1007.0 |
| 20260507112102 | 95 | 275 | 1.0 | 7.0 | 0.00 | 0.00 | 0.00 | 36 | 1006.9 |
| 20260507112009 | 94 | 246 | 2.0 | 7.0 | 0.00 | 0.00 | 0.00 | 35 | 1006.9 |
| 20260507111902 | 95 | 300 | 3.0 | 7.0 | 0.00 | 0.00 | 0.00 | 35 | 1007.0 |
| 20260507111804 | 95 | 302 | 3.0 | 7.0 | 0.00 | 0.00 | 0.00 | 36 | 1007.0 |
| 20260507111703 | 95 | 287 | 3.0 | 7.0 | 0.00 | 0.00 | 0.00 | 36 | 1006.9 |
| 20260507111603 | 95 | 245 | 4.0 | 7.0 | 0.00 | 0.00 | 0.00 | 36 | 1006.9 |
| 20260507111506 | 95 | 234 | 2.0 | 7.0 | 0.00 | 0.00 | 0.00 | 36 | 1006.9 |
| 20260507111404 | 95 | 355 | 1.0 | 3.0 | 0.00 | 0.00 | 0.00 | 36 | 1006.9 |
| 20260507111303 | 94 | 204 | 1.0 | 3.0 | 0.00 | 0.00 | 0.00 | 36 | 1006.9 |
| 20260507111203 | 94 | 262 | 1.0 | 3.0 | 0.00 | 0.00 | 0.00 | 35 | 1006.8 |
| 20260507111105 | 94 | 304 | 1.0 | 5.0 | 0.00 | 0.00 | 0.00 | 35 | 1006.9 |
| 20260507110803 | 94 | 259 | 2.0 | 6.0 | 0.00 | 0.00 | 0.00 | 36 | 1006.8 |
| 20260507110702 | 94 | 263 | 2.0 | 6.0 | 0.00 | 0.00 | 0.00 | 35 | 1006.8 |
| 20260507110402 | 95 | 254 | 3.0 | 6.0 | 0.00 | 0.00 | 0.00 | 36 | 1006.9 |
| 20260507110302 | 95 | 252 | 3.0 | 6.0 | 0.00 | 0.00 | 0.00 | 36 | 1006.9 |
| 20260507110202 | 95 | 281 | 3.0 | 7.0 | 0.00 | 0.00 | 0.00 | 35 | 1006.9 |
| 20260507110006 | 95 | 304 | 3.0 | 7.0 | 0.00 | 0.00 | 0.00 | 35 | 1007.0 |
| 20260507105903 | 95 | 288 | 4.0 | 7.0 | 0.00 | 0.00 | 0.00 | 35 | 1006.8 |
| 20260507105805 | 95 | 285 | 3.0 | 7.0 | 0.00 | 0.00 | 0.00 | 35 | 1006.9 |
| 20260507105703 | 95 | 279 | 2.0 | 6.0 | 0.00 | 0.00 | 0.00 | 36 | 1006.9 |
| 20260507105603 | 95 | 254 | 2.0 | 6.0 | 0.00 | 0.00 | 0.00 | 36 | 1006.9 |
| 20260507105505 | 95 | 233 | 2.0 | 6.0 | 0.00 | 0.00 | 0.00 | 36 | 1006.8 |
| 20260507105402 | 95 | 205 | 3.0 | 6.0 | 0.00 | 0.00 | 0.00 | 35 | 1006.8 |
| 20260507105306 | 95 | 245 | 3.0 | 6.0 | 0.00 | 0.00 | 0.00 | 35 | 1006.9 |
| 20260507105205 | 95 | 200 | 2.0 | 6.0 | 0.00 | 0.00 | 0.00 | 36 | 1006.9 |
| 20260507105103 | 95 | 249 | 1.0 | 6.0 | 0.00 | 0.00 | 0.00 | 35 | 1006.9 |
| 20260507105006 | 95 | 350 | 1.0 | 6.0 | 0.00 | 0.00 | 0.00 | 35 | 1007.0 |
| 20260507104803 | 95 | 297 | 3.0 | 6.0 | 0.00 | 0.00 | 0.00 | 35 | 1007.0 |
| 20260507104605 | 95 | 276 | 2.0 | 6.0 | 0.00 | 0.00 | 0.00 | 35 | 1007.0 |
| 20260507104507 | 95 | 259 | 2.0 | 4.0 | 0.00 | 0.00 | 0.00 | 36 | 1007.0 |
| 20260507104404 | 95 | 259 | 2.0 | 4.0 | 0.00 | 0.00 | 0.00 | 35 | 1007.0 |
| 20260507104303 | 95 | 197 | 1.0 | 4.0 | 0.00 | 0.00 | 0.00 | 35 | 1006.9 |
| 20260507104202 | 95 | 213 | 1.0 | 3.0 | 0.00 | 0.00 | 0.00 | 36 | 1007.0 |
| 20260507104105 | 95 | 220 | 1.0 | 5.0 | 0.00 | 0.00 | 0.00 | 36 | 1006.9 |
| 20260507104015 | 95 | 209 | 0.0 | 5.0 | 0.00 | 0.00 | 0.00 | 36 | 1006.9 |
| 20260507103902 | 95 | 250 | 1.0 | 5.0 | 0.00 | 0.00 | 0.00 | 36 | 1006.9 |
| 20260507103806 | 95 | 247 | 1.0 | 5.0 | 0.00 | 0.00 | 0.00 | 36 | 1006.9 |
| 20260507103603 | 94 | 79 | 2.0 | 5.0 | 0.00 | 0.00 | 0.00 | 35 | 1007.0 |
| 20260507103507 | 94 | 30 | 2.0 | 5.0 | 0.00 | 0.00 | 0.00 | 35 | 1006.9 |
| 20260507103402 | 94 | 35 | 3.0 | 5.0 | 0.00 | 0.00 | 0.00 | 34 | 1007.1 |
| 20260507103302 | 94 | 39 | 2.0 | 5.0 | 0.00 | 0.00 | 0.00 | 34 | 1007.0 |
| 20260507103203 | 94 | 50 | 2.0 | 4.0 | 0.00 | 0.00 | 0.00 | 35 | 1007.0 |
| 20260507103102 | 94 | 50 | 1.0 | 6.0 | 0.00 | 0.00 | 0.00 | 35 | 1007.1 |
| 20260507103006 | 94 | 51 | 1.0 | 6.0 | 0.00 | 0.00 | 0.00 | 35 | 1007.1 |